[{"header": {"dx": 0.06612293990616946, "dy": 0.0552356325346848, "nx": 98, "ny": 59, "la1": 35.046912555036876, "la2": 31.78801023549047, "lo1": -121.43107172385933, "lo2": -114.95102361305473, "refTime": "2026040720", "parameterCategory": 1, "parameterNumber": 2}, "data": [8.24, 8.56, 8.56, 8.85, 8.85, 9.08, 9.37, 9.3, 9.5, 9.76, 9.48, 9.01, 10.18, 9.49, 8.77, 8.9, 8.44, 4.11, 0.0, -1.73, -3.4, -4.83, -4.19, -3.91, -4.43, -4.89, -4.43, -3.91, -3.91, -2.99, -2.49, -2.16, 0.0, 0.0, 1.05, 2.16, 2.8, 2.8, 3.91, 4.89, 5.21, 5.95, 6.98, 7.56, 9.09, 10.48, 12.87, 14.3, 14.82, 12.45, 7.76, 6.57, 6.58, 7.6, 7.07, 7.44, 8.4, 9.21, 9.21, 9.39, 9.39, 8.94, 8.05, 7.15, 6.51, 6.94, 7.37, 8.49, 9.39, 11.18, 12.07, 11.62, 10.73, 10.28, 9.83, 9.83, 7.59, 5.2, 0.0, 0.0, 0.0, 0.0, 2.6, 3.16, 3.2, 3.58, 4.92, 5.81, 5.81, 5.2, 1.58, -0.0, -0.0, -0.0, 2.06, 2.45, -0.0, -1.23, 8.24, 8.24, 8.56, 8.56, 8.85, 9.42, 9.37, 9.37, 9.3, 9.38, 8.96, 10.0, 9.36, 9.33, 9.54, 9.03, 8.33, 8.06, 1.63, -0.95, -1.58, -3.8, -4.83, -4.56, -4.43, -4.43, -4.43, -3.91, -3.72, -3.72, -2.8, -1.98, -0.96, 0.0, 0.96, 1.98, 2.64, 2.64, 3.0, 3.72, 4.87, 6.64, 7.59, 7.78, 10.12, 12.57, 13.96, 13.96, 12.7, 7.81, 7.2, 7.12, 7.06, 7.6, 7.37, 7.6, 8.3, 9.21, 9.83, 9.83, 9.83, 8.94, 8.05, 7.15, 7.15, 7.6, 8.49, 8.94, 9.39, 10.28, 11.62, 11.62, 11.18, 10.28, 8.94, 8.94, 9.2, 5.2, 0.0, 0.0, 0.0, 0.0, 2.6, 3.16, 3.2, 3.58, 4.92, 5.81, 5.81, 5.2, 1.58, -0.0, -0.0, -0.0, 2.06, 2.45, -0.0, -1.23, 8.24, 8.24, 8.56, 8.56, 8.85, 9.13, 9.42, 9.37, 9.3, 9.21, 8.55, 7.76, 9.77, 8.95, 8.4, 8.56, 8.99, 8.99, 6.32, 0.0, -0.95, -2.99, -3.32, -5.1, -4.83, -4.43, -3.91, -3.47, -3.0, -2.82, -2.67, -1.73, -0.95, 0.0, 0.96, 1.49, 1.84, 2.82, 2.67, 3.6, 5.38, 6.97, 8.72, 10.13, 11.72, 12.74, 14.22, 12.96, 6.79, 6.11, 6.82, 7.12, 7.31, 7.6, 7.01, 7.2, 8.33, 9.39, 9.83, 9.83, 9.83, 8.49, 7.37, 7.81, 7.81, 8.33, 9.21, 10.08, 10.52, 11.18, 12.07, 12.14, 11.45, 9.6, 7.2, 7.63, 9.33, 5.8, 0.0, 0.0, 0.0, 0.0, 2.4, 1.98, 2.84, 2.98, 4.57, 6.17, 5.81, 4.46, -0.0, -0.0, -0.0, 1.91, 4.32, 4.8, 1.52, -1.08, 8.24, 8.24, 8.56, 8.56, 8.56, 9.13, 9.42, 9.37, 9.3, 9.21, 8.29, 8.0, 9.42, 8.55, 8.4, 8.4, 8.8, 9.2, 8.21, 3.55, 0.0, -1.49, -3.32, -6.01, -5.72, -6.01, -3.72, -2.8, -1.84, -1.73, -1.75, -1.75, -1.84, -1.4, 0.0, 1.58, 2.69, 4.2, 4.25, 5.2, 7.49, 9.42, 10.17, 9.67, 9.42, 10.15, 11.54, 7.07, 5.24, 5.84, 6.18, 6.57, 6.45, 7.15, 7.45, 8.33, 8.82, 9.39, 10.28, 10.28, 9.39, 7.89, 7.37, 6.8, 8.3, 8.72, 9.13, 9.75, 11.03, 11.87, 12.39, 12.65, 10.43, 6.94, 4.96, 7.07, 9.33, 8.85, 0.0, 0.0, 0.0, 2.6, 2.26, 1.84, 2.23, 3.48, 4.98, 5.4, 6.36, 2.1, -0.0, -0.0, -0.0, 3.39, 4.37, 3.22, 1.41, -2.12, 8.24, 8.24, 8.56, 8.56, 8.56, 9.13, 9.13, 9.42, 9.37, 9.3, 8.65, 8.0, 8.42, 8.6, 8.4, 8.8, 8.63, 8.82, 9.03, 6.32, 1.4, 0.0, -1.49, -4.6, -5.2, -4.83, -4.37, -2.99, -1.58, 0.0, 0.0, -0.85, -1.84, -2.02, 0.0, 0.0, 1.45, 4.08, 5.46, 6.63, 8.33, 8.46, 8.31, 7.36, 8.02, 7.59, 7.37, 6.8, 6.64, 6.64, 6.0, 6.36, 6.61, 7.6, 7.94, 8.82, 8.94, 9.39, 10.28, 10.14, 8.82, 6.58, 7.01, 7.89, 8.72, 9.13, 9.13, 8.91, 10.18, 10.8, 11.53, 9.77, 7.2, 2.98, 3.04, 4.46, 7.07, 8.4, 0.0, -3.96, 0.0, 3.48, 3.22, 2.26, 2.73, 4.29, 4.98, 8.05, 2.82, -0.0, -0.0, -0.0, 1.76, 2.8, 4.89, 4.29, 1.84, -2.83, 8.24, 8.24, 8.56, 8.56, 8.56, 9.13, 9.13, 9.42, 9.08, 9.3, 8.65, 7.44, 8.42, 8.8, 9.13, 8.95, 8.43, 9.2, 8.68, 8.38, 3.8, 0.0, -1.54, -2.97, -3.32, -3.49, -3.49, -1.47, -1.47, 0.0, 0.85, 1.75, 1.6, 0.0, 0.0, 0.0, 2.08, 4.58, 5.99, 4.93, 4.81, 5.27, 6.15, 7.9, 8.69, 10.01, 10.8, 10.32, 7.5, 6.26, 5.81, 6.26, 7.15, 7.15, 7.6, 8.05, 8.49, 8.49, 9.39, 10.58, 9.21, 6.14, 7.01, 7.89, 8.82, 9.33, 9.13, 8.3, 8.06, 9.75, 10.73, 8.31, 0.0, 0.0, 0.0, 2.72, 4.96, 2.8, 0.0, -2.28, 0.0, 3.47, 3.47, 4.22, 3.97, 7.81, 7.81, 4.32, 2.35, -0.0, -0.0, 2.06, 4.2, 4.74, 5.58, 4.98, -0.0, -2.39, 8.24, 8.24, 8.56, 8.56, 8.56, 8.85, 9.13, 9.13, 9.42, 9.02, 8.15, 7.21, 8.42, 8.8, 10.6, 9.36, 9.77, 9.81, 9.04, 8.94, 7.68, 2.67, -1.16, -2.33, -1.69, -1.69, -1.76, -1.76, -1.76, -0.99, 0.0, 2.57, 4.56, 4.5, 1.18, 0.0, 1.77, 4.65, 1.61, 0.92, 2.63, 2.93, 4.39, 6.43, 9.44, 10.37, 10.61, 10.05, 7.74, 6.94, 6.71, 6.26, 7.15, 7.15, 7.15, 6.71, 7.6, 7.6, 8.49, 9.83, 8.49, 6.26, 6.26, 6.58, 7.06, 8.82, 9.64, 8.3, 7.06, 8.77, 10.73, 11.62, -3.82, -3.47, -2.98, 0.0, 0.0, 2.69, 1.84, 0.0, 0.0, 4.22, 6.01, 8.0, 9.75, 10.18, 7.24, 4.24, 2.28, 2.13, 1.98, 3.82, 3.72, 5.49, 6.57, 5.4, -0.0, -2.28, 8.24, 8.24, 8.56, 8.56, 8.56, 8.56, 9.13, 9.13, 9.42, 8.5, 7.88, 6.95, 7.4, 8.55, 9.48, 8.63, 9.45, 10.55, 9.52, 10.04, 10.04, 8.55, 5.37, 1.73, 0.0, 0.0, 0.0, -2.28, -1.91, -1.58, 0.0, 1.39, 3.92, 5.95, 3.39, 0.0, 12.07, -0.0, -3.68, 0.0, 0.0, 1.33, 3.56, 6.0, 5.06, 6.32, 6.52, 6.99, 7.6, 7.2, 5.2, 6.07, 7.15, 7.01, 7.5, 7.5, 8.41, 8.41, 8.85, 8.94, 8.49, 6.26, 5.81, 5.36, 5.81, 7.15, 9.26, 8.77, 6.58, 7.15, 8.67, 4.6, -5.0, -12.07, -11.99, -3.96, 0.0, 0.0, 0.0, 0.0, -3.79, 0.0, 8.4, 9.39, 10.18, 8.53, 6.44, 4.81, 4.81, 2.37, 4.15, 2.76, 4.89, 6.21, 6.57, 5.01, 1.95, -0.0, 8.24, 8.24, 8.56, 8.56, 8.56, 8.87, 9.46, 9.13, 9.13, 8.82, 7.91, 7.18, 7.24, 6.98, 7.42, 7.9, 9.08, 9.4, 9.67, 9.52, 9.86, 10.4, 9.2, 7.31, 5.81, 6.7, 6.8, 0.0, 0.0, 0.0, 0.0, 1.83, 7.13, 13.15, 12.07, -0.0, -2.71, -4.8, -6.64, -3.72, 0.0, 1.4, 2.83, 2.99, 4.29, 4.29, 7.37, 8.24, 7.5, 7.45, 8.06, 6.4, 7.06, 7.06, 8.06, 8.6, 9.03, 9.89, 9.89, 9.29, 8.82, 6.61, 5.29, 5.26, 5.36, 7.15, 9.26, 8.77, 6.26, 6.26, 7.81, 6.64, -0.0, -3.82, -7.9, 9.83, 0.0, 0.0, 0.0, -8.43, -9.17, 0.0, 0.0, 8.49, 6.64, 5.7, 7.59, 5.0, 4.8, 4.4, 3.49, 3.48, 4.19, 5.58, 5.58, 4.89, 2.99, 1.58, 8.24, 8.24, 8.56, 8.87, 8.56, 8.87, 9.46, 9.13, 9.13, 8.53, 8.54, 8.17, 7.9, 7.73, 7.1, 6.48, 6.96, 7.62, 7.51, 7.85, 8.24, 9.2, 9.39, 6.44, 4.14, 5.37, 5.37, 8.18, 11.03, 2.82, 0.0, 12.96, -0.0, 5.0, 6.71, 3.25, -0.0, -1.25, -0.0, -0.0, -0.0, 2.53, 4.98, 5.6, 6.17, 6.26, 6.2, 6.88, 7.1, 7.15, 7.08, 6.52, 6.52, 6.9, 8.0, 9.04, 9.86, 10.27, 10.27, 9.2, 8.8, 6.13, 7.2, 5.6, 6.58, 7.06, 9.26, 9.26, 7.15, 7.15, 8.49, 10.18, 5.4, -0.0, -0.0, 9.39, 8.49, 8.94, 0.0, -9.8, -11.38, -9.17, 0.0, 7.6, 6.71, 6.4, 6.7, 7.07, 5.69, 4.84, 4.8, 3.58, 4.65, 4.89, 5.58, 5.24, 5.03, 3.2, 8.24, 8.54, 8.87, 8.87, 8.87, 8.87, 9.17, 9.46, 9.13, 8.85, 9.17, 9.17, 9.48, 9.42, 9.59, 8.67, 7.95, 8.72, 9.61, 11.06, 15.59, 7.8, 4.01, 2.35, -0.0, -0.0, -0.0, -0.0, 2.69, 7.59, -0.0, -0.0, -0.0, 1.14, 2.32, 5.21, 2.97, 3.2, 2.8, 4.29, 4.74, 5.6, 6.17, 7.15, 7.6, 6.45, 6.57, 7.37, 7.54, 7.6, 7.54, 6.0, 4.89, 5.06, 6.32, 7.9, 9.46, 9.82, 9.27, 8.59, 6.32, 6.28, 5.69, 5.37, 6.44, 7.89, 9.33, 8.91, 7.06, 7.47, 9.11, 10.18, 11.62, 10.73, 7.27, 7.59, 9.83, 9.39, 9.83, -12.52, -10.12, -8.68, -3.69, 0.0, 4.11, 6.0, 7.6, 7.15, 6.26, 4.92, 4.34, 4.0, 3.93, 4.54, 5.58, 5.95, 5.06, 4.58, 8.24, 8.24, 8.87, 8.87, 8.87, 8.87, 9.17, 9.17, 9.46, 9.46, 8.87, 9.48, 9.5, 10.65, 10.96, 10.16, 10.13, 10.8, 11.77, 13.81, 9.48, -5.0, -5.9, -4.6, -3.72, -4.43, -5.21, -2.98, -2.6, -0.0, -0.0, 0.96, 1.14, 1.05, 1.99, 2.99, 4.01, 5.37, 5.37, 6.18, 6.6, 6.21, 6.16, 7.01, 6.51, 5.51, 7.01, 7.6, 8.05, 7.47, 6.57, 5.58, 4.74, 4.58, 4.42, 5.53, 5.98, 7.02, 6.94, 6.17, 6.7, 7.63, 6.01, 4.56, 6.01, 6.98, 8.93, 9.08, 6.7, 7.27, 7.27, 7.59, 5.21, 4.96, 2.97, 3.39, 4.8, 10.28, 10.73, -0.0, 12.96, 0.0, 0.0, 0.0, 0.0, 2.26, 4.46, 7.07, 7.21, 5.81, 4.92, 4.66, 4.0, 4.98, 5.94, 6.0, 5.49, 5.49, 8.24, 8.24, 8.56, 8.87, 8.87, 8.87, 9.17, 9.17, 9.17, 9.17, 9.48, 9.48, 9.5, 10.69, 12.27, 13.31, 13.02, 11.74, 10.04, 11.08, 11.18, 8.8, -4.46, -4.19, -4.4, -4.66, -4.66, -4.98, -4.43, -3.0, -0.0, 1.84, 1.84, 1.84, 1.84, 2.8, 4.01, 5.49, 6.21, 6.57, 6.57, 6.45, 5.73, 4.82, 5.09, 4.46, 5.94, 7.15, 7.45, 7.06, 5.58, 5.49, 5.06, 5.72, 7.44, 8.91, 5.69, 0.0, -2.28, -6.71, -0.0, 3.0, 7.37, 6.8, 6.28, 5.58, 5.15, 5.7, 3.53, 3.68, 3.39, 3.65, 3.32, 1.58, 0.0, 0.0, 0.0, -4.6, -7.59, 10.73, 8.49, 8.49, 11.18, 13.41, 0.0, 3.04, 0.0, 1.84, 3.4, 6.4, 5.2, 4.47, 4.02, 4.92, 6.58, 5.6, 5.58, 5.58, 8.24, 8.24, 8.56, 8.87, 8.87, 9.17, 9.17, 9.17, 9.17, 9.17, 9.48, 9.48, 10.09, 10.69, 11.52, 12.82, 13.82, 13.81, 12.98, 11.86, 11.89, 11.84, 12.07, -8.22, -10.6, -9.97, -8.67, -5.94, -4.84, -2.8, -0.0, 0.96, 3.0, 2.6, 2.8, 3.47, 4.81, 6.21, 6.88, 7.1, 6.65, 6.2, 6.26, 5.09, 3.79, 3.22, 3.79, 6.0, 8.05, 9.83, 9.83, 10.18, 13.41, 6.2, 3.96, 8.22, 8.91, 0.0, -10.18, -3.91, -0.84, 1.32, 3.4, 5.21, 5.81, 5.94, 5.6, 3.63, 2.39, 0.0, 0.0, 0.0, -2.1, -3.11, -8.8, -10.0, -4.8, -5.37, -3.6, 0.0, 5.06, 8.49, 11.62, 13.41, 12.52, 9.48, 0.0, -3.25, 0.0, 2.8, 2.8, 3.79, 4.4, 5.36, 5.81, 5.26, 5.94, 5.6, 8.24, 8.56, 8.87, 8.87, 8.87, 9.17, 9.17, 9.17, 9.17, 9.48, 9.48, 10.09, 10.09, 10.69, 11.28, 12.37, 13.23, 13.82, 13.81, 13.26, 11.99, 12.58, 12.85, 13.86, 13.41, 12.96, 11.62, -0.0, -0.0, -0.0, 0.96, 1.83, 2.8, 2.8, 3.0, 3.91, 6.28, 6.57, 7.94, 6.71, 6.71, 6.71, 5.64, 4.84, 3.22, 1.41, 1.52, 4.43, 6.0, 6.0, 7.2, 7.81, 1.84, -0.0, 1.63, 3.72, 4.74, 6.01, -0.0, -1.73, -0.0, -0.0, 1.73, 3.2, 3.72, 5.21, 6.51, 7.15, 4.11, -1.73, -3.2, -8.23, -11.62, -9.6, -4.6, -2.97, -4.92, -3.2, -2.0, 0.0, 1.98, 3.0, 6.32, 10.73, 10.28, 11.2, 13.41, -7.9, -3.8, 0.0, 2.26, 0.0, 0.0, 4.8, 5.81, 5.26, 5.7, 5.7, 7.96, 8.87, 8.87, 8.87, 8.87, 9.17, 9.17, 9.17, 9.17, 9.48, 9.77, 10.09, 10.09, 10.69, 11.28, 11.8, 12.82, 13.48, 13.31, 13.32, 12.72, 12.79, 13.39, 14.07, 14.3, 13.86, 12.42, 11.51, 9.33, 7.06, 4.65, 2.84, 3.14, 4.43, 3.0, 3.9, 5.49, 6.45, 7.15, 6.71, 5.36, 4.98, 5.21, 4.43, 3.22, 1.52, 1.52, 3.22, 3.22, 4.43, 4.43, 3.72, 3.0, 3.47, 3.22, 4.84, 5.21, 4.43, 3.2, 2.82, 1.72, 1.52, 3.47, 3.47, 3.72, 3.72, 5.06, 6.44, 7.15, 0.0, -5.4, -9.33, -7.82, -3.19, -0.0, 1.03, -0.0, 5.81, 0.0, 0.0, 0.0, 0.0, 0.0, 0.0, 0.0, 6.26, 7.27, 6.95, 8.49, 7.6, 0.0, -1.84, 0.0, 5.51, 5.64, 4.92, 4.47, 4.47, 7.96, 8.24, 8.87, 8.87, 8.87, 9.17, 9.17, 9.17, 9.48, 9.48, 9.77, 10.09, 10.09, 10.69, 10.94, 11.8, 12.27, 12.54, 12.79, 12.62, 12.53, 12.79, 13.29, 13.74, 14.27, 14.75, 14.75, 14.3, 13.41, 12.07, 10.28, 7.94, 4.29, 3.72, 2.8, 2.64, 3.47, 5.21, 5.09, 4.4, 3.79, 3.22, 3.0, 2.99, 3.0, 1.32, 3.0, 3.47, 3.22, 4.11, 4.11, 3.22, 3.22, 4.11, 5.21, 5.6, 6.0, 5.36, 4.29, 4.29, 4.29, 3.47, 4.84, 4.84, 5.21, 4.29, 5.58, 6.4, 6.94, 4.92, -7.6, -7.15, -3.56, -0.0, 0.94, 2.99, 3.72, 4.74, 4.43, 0.0, 0.0, 0.0, -1.95, -1.95, 0.0, 0.0, 4.92, 4.02, 4.66, 5.69, -6.32, -2.98, 0.0, 6.0, 6.36, 5.09, 4.47, 4.47, 7.96, 8.24, 8.58, 8.87, 8.87, 9.17, 9.17, 9.48, 9.48, 9.77, 9.77, 10.09, 10.09, 10.69, 10.99, 11.52, 12.45, 12.92, 12.67, 12.74, 12.89, 13.44, 13.53, 13.31, 13.83, 15.17, 15.97, 15.49, 15.15, 14.22, 12.79, 11.18, 8.48, 2.8, 1.7, 1.18, -0.0, -0.0, 1.84, 1.84, 1.52, 1.63, 3.0, 3.0, 2.66, 3.91, 4.29, 4.74, 5.21, 4.84, 4.46, 3.79, 4.46, 4.84, 5.6, 6.51, 6.0, 5.36, 5.36, 4.74, 5.36, 5.6, 5.21, 5.64, 5.81, 4.92, 5.26, 6.51, 8.8, 7.9, -0.0, -1.91, -0.0, -0.0, 1.96, 3.55, 3.97, 3.91, 4.43, 5.81, 0.0, -4.43, -5.06, -2.97, 0.0, 3.4, 5.69, 4.92, 5.51, 6.7, 6.64, 0.0, 0.0, 5.37, 7.15, 5.81, 4.92, 4.92, 7.96, 8.24, 8.24, 8.58, 8.87, 8.87, 9.17, 9.48, 9.48, 9.77, 9.77, 10.09, 10.36, 10.36, 10.36, 12.57, 11.52, 11.88, 11.61, 12.04, 13.75, 15.04, 13.75, 11.14, 10.92, 13.81, 12.39, 14.18, 14.3, 13.41, 9.17, 10.8, 10.73, 6.32, 2.12, -0.0, -0.0, 1.3, 1.41, 1.84, 1.83, 1.99, 3.47, 3.0, 4.56, 5.37, 6.52, 6.64, 6.0, 5.6, 4.84, 4.46, 5.09, 5.09, 6.07, 6.07, 5.6, 6.0, 6.0, 6.0, 6.07, 6.07, 6.07, 5.36, 5.36, 4.92, 5.36, 6.26, 8.48, 8.58, 5.69, 5.15, 6.87, 5.7, 3.72, 2.8, 3.0, 3.0, 2.8, 2.6, -1.84, -7.21, -9.39, -8.8, -6.95, 0.0, 9.39, 8.49, 7.27, 6.64, 6.32, 6.26, 0.0, 8.05, 7.15, 6.26, 5.81, 5.81, 7.96, 7.96, 8.24, 8.58, 8.87, 8.87, 9.17, 9.48, 9.48, 9.77, 9.77, 10.09, 10.36, 10.36, 10.69, 10.88, 10.94, 9.76, 10.63, 11.26, 13.19, 14.39, 13.51, 11.09, 11.52, 11.88, 7.0, -15.2, -12.65, -9.48, -11.62, 10.73, 10.28, 8.0, 5.69, 3.0, -0.0, 1.84, 1.84, 2.73, 2.68, 2.68, 2.84, 2.84, 3.78, 6.52, 7.06, 6.64, 6.51, 5.6, 4.84, 4.84, 4.84, 4.84, 4.98, 5.51, 6.4, 5.51, 6.02, 7.15, 6.71, 6.26, 6.26, 6.26, 4.92, 4.92, 5.36, 5.81, 6.88, 7.12, 8.56, 12.08, 16.71, 18.21, 14.11, 4.2, 1.58, 1.4, 1.96, 1.03, -0.0, -1.58, -6.32, -7.07, -7.6, -7.15, -5.36, -4.92, 6.71, 5.36, 5.51, 6.01, -0.0, -5.69, -0.0, 3.4, 4.43, 4.43, 7.6, 7.96, 7.96, 8.24, 8.58, 8.87, 9.17, 9.48, 9.48, 9.77, 9.77, 10.09, 10.36, 10.36, 11.03, 11.28, 10.65, 9.76, 8.85, 10.51, 12.22, 12.92, 12.12, 11.38, 12.97, 14.13, 13.99, -15.2, -9.48, -7.27, -0.0, 8.49, 8.49, 8.49, 6.8, 6.0, 5.2, 4.11, 2.8, 4.43, 4.11, 4.11, 4.43, 4.89, 4.12, 6.52, 7.06, 7.01, 5.6, 4.84, 4.11, 4.84, 4.84, 4.84, 5.21, 4.98, 6.16, 6.07, 7.6, 7.15, 6.71, 6.26, 6.26, 6.26, 4.92, 4.92, 4.92, 5.73, 6.64, 8.24, 11.4, 13.86, 16.03, 15.9, 15.65, -0.0, -0.0, -0.0, 1.69, 2.4, 2.12, 1.18, -0.0, -3.2, -3.72, -3.6, -4.02, -4.02, -5.81, 6.26, 8.05, 4.4, -0.0, -2.12, -0.0, 2.12, 4.8, 4.8, 7.6, 7.96, 7.96, 7.96, 8.58, 8.87, 9.17, 9.48, 9.48, 9.77, 9.77, 10.09, 10.36, 10.36, 10.69, 11.28, 11.23, 10.35, 11.06, 12.04, 13.18, 12.86, 10.43, 10.17, 12.24, 14.29, 14.56, 12.96, 9.39, -0.0, -0.0, 4.43, 6.71, 6.71, 7.15, 6.71, 6.26, 4.66, 5.2, 5.21, 4.43, 4.43, 4.43, 4.43, 4.11, 4.37, 7.06, 6.51, 4.84, 3.47, 3.47, 3.22, 4.84, 4.84, 5.21, 6.0, 6.16, 7.37, 7.6, 6.64, 5.6, 5.94, 5.51, 5.51, 5.26, 4.92, 4.92, 5.36, 6.17, 7.89, 8.06, 9.83, 9.8, 0.0, -8.0, -9.8, -5.23, -0.0, -0.0, 1.45, 2.54, 1.84, 1.1, -0.0, -0.0, -0.0, -0.0, -1.19, -5.37, -9.39, -7.9, -0.0, -0.0, -0.0, -0.0, 3.79, 5.2, 5.2, 7.6, 7.6, 7.6, 7.96, 8.58, 8.87, 8.87, 9.48, 9.48, 9.48, 9.77, 10.09, 10.36, 10.36, 10.69, 10.94, 10.94, 10.65, 11.68, 12.71, 14.13, 13.81, 11.88, 10.09, 11.03, 12.65, 13.8, 12.6, 10.32, 9.11, 8.05, 6.71, 5.81, 5.36, 5.36, 5.81, 5.36, 4.92, 4.77, 5.2, 5.6, 5.01, 5.01, 4.43, 3.35, 3.48, 6.0, 4.11, 1.52, 1.63, 3.0, 3.47, 4.43, 5.21, 5.21, 5.6, 5.6, 6.57, 7.45, 4.98, 3.91, 4.43, 4.89, 4.98, 4.4, 4.47, 4.47, 4.92, 5.73, 6.17, 7.06, 5.2, -12.39, -8.06, -4.92, -9.83, -12.79, -8.93, -3.07, -0.0, 1.45, 1.14, -0.0, 0.95, 0.95, 0.95, -0.0, -0.0, -3.82, -10.4, -12.14, -7.6, -1.8, -0.0, -0.0, 3.16, 4.4, 4.4, 7.6, 7.6, 7.6, 7.96, 8.58, 8.87, 8.87, 9.48, 9.48, 9.48, 9.77, 10.09, 10.36, 10.36, 10.94, 10.94, 10.94, 11.33, 12.02, 12.7, 13.41, 13.68, 13.37, 11.99, 11.16, 11.72, 12.45, 12.79, 12.04, 11.09, 9.96, 8.48, 7.6, 6.71, 6.26, 6.26, 5.81, 5.36, 5.36, 5.26, 5.2, 5.6, 5.36, 5.01, 3.49, 2.53, 3.22, 1.52, 1.32, 1.4, 2.66, 4.74, 4.43, 4.43, 5.21, 5.6, 5.51, 6.0, 6.8, 5.36, 1.99, 1.98, 3.22, 3.72, 4.0, 4.92, 3.9, 5.36, 5.36, 6.26, 6.71, -6.64, -10.6, -4.98, -4.46, -4.92, -8.94, -11.2, -7.93, -2.35, -0.0, -0.0, -0.0, 1.0, 1.07, 1.01, 0.89, 1.11, -0.0, -2.26, -8.05, -5.81, -4.02, 4.02, -0.0, 4.92, 5.81, 5.81, 7.6, 7.6, 7.6, 7.96, 7.96, 7.96, 8.87, 9.17, 9.48, 9.48, 9.77, 10.09, 10.09, 10.36, 10.69, 10.94, 11.23, 11.33, 11.68, 12.36, 12.7, 13.39, 13.29, 13.52, 13.39, 12.56, 11.88, 12.62, 12.62, 12.25, 11.5, 10.6, 9.64, 8.94, 8.49, 8.05, 7.6, 7.15, 6.71, 6.26, 6.58, 6.23, 6.64, 6.0, 5.21, 3.22, 1.84, 1.05, 0.81, 0.81, 1.23, 3.0, 3.47, 3.47, 4.43, 6.0, 6.0, 5.4, 6.0, 5.51, 3.16, 1.08, 1.27, 3.13, 2.0, 2.48, 3.93, 4.98, 5.81, 6.71, 7.6, 7.6, -9.6, -8.03, -8.43, -6.94, -4.02, -4.0, -7.44, -6.21, -4.24, -1.77, -0.0, -0.0, 1.14, 1.07, 1.0, 1.95, 1.96, 1.7, -0.0, -7.81, -5.51, -4.92, 4.02, 5.36, 5.81, 5.81, 7.33, 7.33, 7.6, 7.96, 7.96, 7.96, 8.87, 8.87, 9.48, 9.48, 9.48, 10.09, 10.09, 10.36, 10.69, 10.94, 10.99, 11.33, 12.02, 12.35, 12.35, 12.68, 13.02, 13.68, 13.99, 13.56, 12.79, 11.8, 12.6, 12.04, 11.44, 11.3, 10.75, 9.75, 9.64, 8.94, 8.49, 8.49, 8.05, 7.6, 7.6, 7.5, 7.45, 7.45, 6.94, 6.0, 3.0, -0.0, -0.0, -0.0, 0.88, 1.55, 2.8, 3.0, 4.29, 5.72, 6.0, 5.6, 6.0, 6.4, 5.94, 4.47, 2.24, -0.0, -0.0, 1.99, 4.11, 5.37, 6.26, 6.64, 7.1, 8.05, 5.69, -8.22, -9.17, -10.73, -12.07, -6.61, -4.98, -6.32, -8.1, -6.4, -1.9, -0.0, -0.0, -0.0, 1.73, 1.84, 1.96, 1.52, 1.98, -7.15, -8.24, -6.71, -5.81, 4.47, 4.92, 4.92, 7.33, 7.33, 7.6, 7.6, 7.96, 8.24, 8.56, 8.87, 9.17, 9.48, 9.48, 9.77, 10.09, 10.36, 10.36, 10.65, 10.99, 11.33, 11.68, 12.35, 12.35, 12.43, 12.78, 13.35, 13.49, 13.59, 13.15, 12.52, 11.97, 11.76, 11.21, 10.79, 10.38, 10.6, 10.18, 9.97, 9.46, 9.7, 9.39, 8.94, 8.94, 8.49, 8.49, 8.05, 7.6, 7.6, 7.6, -0.0, -0.0, -0.0, -0.0, -0.0, 0.73, 1.41, 3.22, 4.43, 5.36, 4.43, 4.54, 5.6, 7.45, 6.17, 5.51, 1.08, 1.32, 1.98, 4.19, 6.45, 6.64, 6.71, 7.1, 7.55, 7.6, 6.32, -4.2, -8.94, -12.72, -10.73, -5.94, -5.58, -7.59, -6.4, -2.02, -1.52, -1.01, -0.0, 1.73, 1.73, 1.01, 0.89, 1.63, 1.72, -8.05, -8.49, -6.71, -4.92, 4.92, 4.92, 7.33, 7.33, 7.33, 7.6, 7.96, 8.24, 8.24, 8.56, 8.87, 9.17, 9.48, 9.77, 10.09, 10.36, 10.36, 10.65, 10.99, 11.33, 12.0, 12.0, 11.73, 12.07, 12.07, 12.78, 13.14, 13.1, 13.19, 12.39, 12.15, 11.5, 11.14, 10.92, 10.5, 10.35, 10.28, 9.75, 9.63, 9.46, 9.29, 9.29, 8.94, 8.94, 8.49, 8.49, 7.63, 5.69, 0.0, -5.37, -2.26, -0.0, -0.0, -0.0, 0.96, 1.83, 2.53, 3.63, 4.74, 4.74, 3.91, 5.21, 6.64, 7.1, 5.94, 2.8, 2.82, 4.14, 6.21, 6.88, 7.15, 7.6, 7.6, 8.0, 8.0, 7.15, 5.36, -0.0, -10.28, -9.7, -6.26, -5.94, -7.2, -7.44, -4.18, -1.91, -1.47, -0.0, 0.89, 1.01, -0.0, -0.0, 1.01, 1.96, -0.0, -7.63, -8.05, -6.71, 5.81, 5.81, 7.33, 7.33, 7.33, 7.61, 8.24, 8.24, 8.24, 8.56, 8.56, 8.87, 9.48, 9.77, 9.77, 10.09, 10.36, 10.65, 10.99, 11.64, 12.0, 12.0, 12.07, 12.07, 12.07, 12.42, 12.76, 12.16, 12.13, 12.08, 11.99, 11.75, 11.5, 11.14, 11.03, 10.5, 10.35, 9.66, 9.85, 9.33, 9.54, 9.74, 9.29, 8.94, 8.49, 7.6, 7.15, 4.22, -2.06, -8.05, -3.4, -0.0, -0.0, 1.3, 1.19, 2.2, 2.95, 2.3, 4.43, 4.02, 3.91, 5.21, 6.45, 6.71, 5.6, 4.22, 3.6, 5.84, 6.6, 7.1, 7.1, 7.37, 7.85, 7.85, 7.85, 8.43, 9.96, 1.84, -2.49, -7.15, -5.73, -5.81, -5.51, -8.53, -7.59, -2.28, -0.0, -0.0, -0.0, -0.0, -0.0, -0.0, 1.03, 1.98, 3.33, -0.0, -7.6, -8.05, 0.0, 0.0, 6.96, 6.96, 7.61, 7.61, 7.61, 7.95, 8.24, 8.56, 8.56, 8.87, 9.17, 9.48, 9.77, 9.77, 10.09, 10.39, 10.99, 11.64, 11.64, 11.39, 12.07, 12.07, 12.16, 12.16, 12.16, 11.79, 12.13, 11.75, 11.69, 11.44, 11.75, 11.5, 11.27, 11.03, 10.6, 10.18, 9.66, 9.85, 9.75, 9.54, 9.54, 9.29, 8.85, 8.05, 7.08, 7.45, 2.69, -7.15, -1.05, -0.0, 1.19, 1.55, 2.2, 2.2, 2.95, 2.95, 2.68, 2.79, 4.11, 4.89, 6.36, 6.45, 5.49, 4.42, 5.49, 5.49, 6.21, 7.47, 6.2, 6.6, 6.82, 7.12, 8.24, 10.58, 11.2, -2.72, -1.71, -2.06, -4.47, -5.26, -5.36, -9.13, -10.37, -6.4, -0.0, -0.0, -0.0, 1.05, -0.0, -0.0, 1.49, 2.99, 5.31, 2.82, -0.0, -8.49, 0.0, 0.0, 6.97, 6.97, 7.24, 7.61, 7.61, 7.95, 7.95, 8.24, 8.56, 8.56, 9.17, 9.17, 9.77, 9.77, 10.06, 10.39, 10.73, 11.04, 11.39, 11.39, 11.72, 11.45, 11.45, 11.8, 11.44, 11.79, 11.42, 11.16, 11.5, 11.5, 11.83, 11.83, 11.2, 10.96, 10.85, 10.32, 10.18, 9.66, 9.55, 9.75, 9.54, 9.54, 9.11, 8.41, 7.6, 7.94, 8.49, 3.72, 1.49, 1.33, 1.6, 1.98, 2.84, 3.48, 3.48, 3.48, 3.48, 3.79, 3.48, 4.29, 5.6, 6.57, 6.18, 6.6, 6.57, 6.16, 5.6, 7.06, 6.71, 6.4, 4.89, 6.17, 7.15, 10.73, -0.0, -10.75, -5.48, -1.76, -3.47, -4.92, -4.38, -5.36, -11.18, -11.16, -4.24, -0.0, 6.64, 4.84, 3.48, -0.0, -0.0, 1.19, 3.22, 4.75, 2.83, 8.94, 8.05, 8.05, 6.97, 6.97, 6.97, 7.61, 7.61, 7.61, 7.95, 7.95, 8.56, 8.56, 9.17, 9.17, 9.17, 9.77, 10.06, 10.39, 10.73, 11.04, 11.04, 11.04, 11.36, 11.45, 11.45, 11.8, 11.44, 11.42, 10.81, 10.79, 10.41, 10.53, 10.91, 11.28, 11.26, 10.8, 10.68, 10.15, 10.32, 9.77, 9.66, 9.55, 9.33, 9.33, 9.11, 8.67, 8.67, 9.33, 9.34, 7.2, 5.21, 3.84, 3.58, 2.98, 3.2, 3.2, 3.6, 3.58, 3.93, 4.29, 4.29, 4.98, 5.2, 6.57, 6.8, 6.79, 7.37, 7.1, 6.71, 7.15, 7.01, 7.15, 5.73, 5.6, 7.89, 8.38, 13.86, -13.59, -12.27, -6.97, -5.36, -9.64, -7.45, -4.57, -4.77, -10.73, -12.96, 13.41, 12.52, 10.73, 6.26, 4.11, -1.8, -0.0, 2.0, 2.95, 2.69, 8.94, 8.05, 8.05, 6.97, 6.97, 6.97, 6.97, 7.61, 7.61, 7.95, 7.95, 8.56, 8.56, 8.87, 9.17, 9.17, 9.17, 9.78, 10.39, 10.39, 10.7, 10.7, 11.04, 10.77, 11.1, 11.1, 11.44, 11.44, 10.82, 10.81, 10.81, 10.79, 10.79, 9.66, 9.27, 9.92, 10.28, 10.09, 9.84, 10.15, 9.6, 9.77, 9.2, 9.55, 8.99, 9.33, 8.79, 9.11, 9.33, 9.83, 8.89, 7.74, 6.79, 5.81, 4.8, 4.34, 3.6, 3.32, 3.32, 3.07, 3.58, 3.93, 4.57, 4.8, 6.57, 7.63, 6.88, 7.1, 7.15, 6.71, 6.71, 8.05, 8.38, 7.2, 6.82, 7.53, 8.45, 12.52, -10.75, -9.26, -5.26, -4.15, -7.6, -8.77, -8.8, -7.44, -7.21, -9.33, 0.0, 11.87, 11.45, 8.94, 5.06, -2.4, -1.13, 1.13, 2.41, 3.72, -0.0, -8.05, -8.05, 6.97, 6.97, 6.97, 6.97, 7.33, 7.61, 7.61, 7.95, 8.56, 8.56, 8.87, 9.17, 9.17, 9.17, 9.78, 9.78, 9.78, 10.11, 10.43, 10.43, 10.77, 11.1, 11.1, 10.76, 10.82, 10.82, 10.81, 11.18, 11.54, 10.91, 10.41, 9.08, 8.64, 9.3, 9.9, 9.52, 9.84, 9.6, 9.42, 9.36, 9.2, 9.13, 9.13, 9.33, 8.91, 9.6, 9.77, 9.39, 8.94, 8.49, 7.45, 6.58, 6.14, 5.7, 4.82, 4.15, 3.32, 3.07, 3.07, 3.07, 6.0, 6.64, 6.64, 7.01, 6.2, 6.26, 6.26, 6.26, 7.6, 8.38, 7.53, 8.0, 8.38, 9.39, 13.86, 13.99, -9.83, -5.36, -4.92, -6.71, -9.83, -10.6, -11.03, -11.03, -11.03, -3.96, 6.0, 11.16, 10.96, 6.32, -2.4, -2.84, -0.0, 0.99, 3.22, -0.0, -8.05, -8.05, 6.97, 6.97, 6.97, 6.97, 6.97, 7.33, 7.61, 7.95, 8.24, 8.56, 8.87, 9.17, 9.17, 9.17, 9.46, 9.46, 9.78, 9.78, 10.09, 10.43, 10.43, 10.43, 10.76, 10.76, 10.82, 10.47, 10.47, 11.18, 11.18, 11.16, 11.26, 10.43, 9.42, 9.08, 9.4, 9.3, 9.3, 9.27, 9.27, 9.03, 9.36, 8.8, 9.13, 9.13, 9.42, 9.33, 9.6, 9.32, 9.39, 8.94, 8.49, 8.05, 7.6, 7.01, 6.14, 5.7, 4.57, 3.74, 3.2, 3.6, 3.6, 6.64, 6.64, 7.01, 7.01, 7.15, 6.2, 6.64, 6.71, 7.1, 6.94, 8.38, 8.82, 11.12, 13.79, 13.33, 12.52, -10.79, -12.71, -12.52, -12.07, -10.8, -10.8, -12.52, -11.87, -3.36, 6.6, 10.37, 10.73, 3.0, -2.0, -3.72, -2.8, -0.0, 2.2, -0.0, -8.49, -8.49, 6.58, 6.58, 6.97, 6.97, 6.97, 7.33, 7.61, 7.95, 8.24, 8.56, 8.56, 9.17, 9.17, 9.13, 9.13, 9.46, 9.46, 9.78, 9.78, 10.09, 10.43, 10.43, 10.43, 10.76, 10.13, 10.47, 10.47, 10.81, 10.81, 10.45, 10.79, 10.87, 10.43, 9.81, 9.08, 9.04, 9.04, 8.93, 9.05, 8.67, 9.03, 8.8, 8.72, 9.13, 9.13, 9.55, 9.75, 9.6, 9.11, 9.29, 8.94, 8.49, 8.05, 7.6, 7.06, 6.61, 5.73, 5.09, 4.24, 3.7, 4.11, 4.52, 7.45, 6.64, 7.1, 7.5, 6.64, 7.1, 7.15, 6.71, 8.05, 7.1, 9.29, 9.79, 12.52, 12.07, 11.53, 7.19, -13.19, -15.34, -13.15, -10.4, -9.6, -10.73, -10.73, 0.0, 7.9, 9.39, 4.8, -0.0, -1.7, -4.09, -3.82, -2.21, -0.0, -0.0, 8.49, 8.49, 6.58, 6.58, 6.97, 6.97, 6.97, 7.33, 7.33, 7.95, 7.95, 8.56, 8.56, 8.56, 8.56, 8.85, 8.85, 8.85, 9.46, 9.46, 9.78, 10.09, 10.09, 10.09, 9.8, 10.13, 10.13, 10.47, 10.47, 10.47, 10.81, 10.45, 10.79, 10.53, 10.28, 10.04, 9.81, 9.81, 9.43, 9.43, 9.05, 9.05, 9.03, 8.43, 8.4, 8.37, 8.17, 8.6, 8.99, 9.2, 9.21, 9.03, 8.82, 8.49, 8.05, 7.6, 7.6, 7.06, 6.17, 5.51, 3.6, 4.11, 4.11, 4.6, 7.45, 6.64, 7.1, 7.94, 6.71, 6.71, 6.71, 6.71, 6.71, 6.71, 8.49, 9.83, 12.52, 12.44, 10.91, 11.62, -13.99, -15.78, -11.99, -6.95, -7.63, -8.05, -8.05, -5.69, -0.0, 4.4, 4.4, -0.0, -1.84, -3.79, -3.72, -4.0, -2.53, 4.47, 7.15, -0.0, 6.33, 6.33, 6.33, 6.71, 6.97, 7.33, 7.33, 7.95, 7.95, 8.56, 8.56, 8.85, 8.85, 8.85, 8.85, 8.85, 8.85, 9.46, 9.46, 9.76, 9.48, 9.48, 9.8, 9.8, 10.13, 10.13, 10.47, 10.47, 10.45, 10.45, 9.84, 10.19, 10.15, 9.56, 9.9, 10.04, 9.43, 9.43, 9.43, 9.05, 8.42, 8.43, 8.0, 7.95, 8.06, 8.72, 8.94, 8.15, 8.55, 9.33, 8.82, 8.49, 8.05, 7.6, 7.6, 7.06, 6.61, 5.51, 4.3, 4.11, 4.11, 4.6, 7.45, 6.64, 7.1, 7.6, 7.15, 6.26, 6.71, 6.71, 6.26, 7.6, 8.49, 8.49, 13.41, 12.14, 8.93, 11.2, -15.65, -16.31, -11.6, -7.81, -8.05, -6.71, -4.92, 4.47, 5.36, 5.36, 4.11, -0.0, -2.4, -3.79, -3.79, -5.2, -4.92, -4.47, 5.81, 7.15, 6.33, 6.33, 6.33, 6.71, 6.71, 7.33, 7.33, 7.95, 7.95, 7.95, 8.53, 8.85, 8.85, 8.85, 8.85, 8.85, 8.85, 8.85, 9.17, 9.48, 9.48, 9.48, 9.48, 9.48, 9.48, 9.8, 9.8, 10.12, 10.12, 10.09, 10.09, 9.82, 9.82, 9.78, 9.19, 9.52, 9.65, 9.65, 9.43, 9.05, 8.79, 8.82, 8.05, 7.89, 8.73, 10.05, 8.53, 5.0, 6.17, 8.4, 8.67, 8.49, 8.05, 7.6, 7.6, 7.06, 6.61, 5.09, 4.73, 4.3, 4.11, 4.6, 5.24, 7.5, 7.15, 7.15, 6.26, 6.26, 6.26, 6.26, 6.71, 6.64, 8.38, 8.94, 10.73, 11.45, 4.6, -7.44, -12.07, -13.15, -11.71, -9.54, -7.81, -6.26, -4.92, 0.0, 4.74, 6.71, -0.0, -1.98, -2.4, -3.79, -5.2, -6.4, -6.26, -5.36, -5.36, 5.81, 6.33, 6.33, 6.33, 6.71, 6.71, 6.97, 7.61, 7.61, 8.24, 8.24, 8.24, 8.85, 8.85, 8.85, 8.85, 8.85, 8.85, 8.85, 8.85, 9.15, 9.15, 9.15, 9.48, 9.48, 9.48, 9.48, 9.8, 9.8, 9.77, 10.09, 9.73, 9.49, 9.46, 9.46, 9.4, 9.19, 9.52, 9.84, 9.65, 9.05, 9.05, 8.42, 8.06, 8.05, 8.95, 10.88, 9.3, 0.0, 3.8, 7.6, 8.49, 8.49, 8.05, 7.6, 7.5, 7.06, 6.61, 5.51, 5.16, 4.73, 4.77, 4.34, 7.01, 7.01, 7.01, 7.15, 6.26, 7.15, 5.81, 6.26, 6.71, 6.94, 8.48, 8.38, 8.49, 8.94, -2.82, -9.6, -9.26, -8.67, -5.6, -4.0, -4.4, -5.06, -3.4, 0.0, 5.06, 7.15, -0.0, -2.26, -3.0, -4.43, -5.6, -7.63, -8.05, 7.15, -6.71, -6.71, 6.33, 6.33, 6.33, 6.71, 6.98, 7.26, 7.61, 7.61, 8.24, 8.24, 8.24, 8.24, 8.24, 8.85, 8.85, 8.85, 8.85, 8.85, 8.85, 9.15, 9.15, 9.15, 8.85, 8.85, 9.17, 9.48, 9.46, 9.46, 9.77, 9.77, 9.73, 9.73, 9.46, 9.09, 9.09, 9.19, 9.19, 9.14, 9.27, 9.27, 9.05, 8.67, 8.42, 8.82, 10.0, 11.45, 10.22, 8.05, 7.6, 7.15, 7.6, 8.05, 8.05, 7.89, 7.5, 7.5, 6.61, 6.02, 5.59, 5.16, 5.2, 4.77, 4.77, 7.5, 7.45, 7.45, 7.01, 6.71, 5.81, 6.71, 7.1, 7.12, 8.4, 7.53, 9.26, 6.71, -4.0, -9.2, -6.9, -4.29, -3.6, -3.6, -7.07, -7.27, 0.0, 0.0, 7.6, 7.15, -0.0, -2.26, -3.2, -3.2, -5.06, -7.2, 8.49, 8.49, 8.49, 8.49, 6.33, 6.33, 6.33, 6.33, 6.98, 7.26, 7.61, 7.61, 7.93, 8.24, 8.24, 8.24, 8.24, 8.54, 8.54, 8.54, 8.85, 8.85, 8.85, 9.15, 9.15, 8.53, 8.85, 8.85, 8.85, 8.85, 9.15, 9.46, 9.46, 9.42, 9.42, 9.37, 9.37, 9.09, 9.09, 9.09, 8.82, 8.82, 9.14, 9.27, 8.88, 8.67, 8.67, 8.82, 9.42, 10.32, 10.14, 8.91, 8.49, 8.05, 7.15, 7.15, 7.6, 7.5, 7.5, 7.5, 7.06, 6.64, 6.02, 5.59, 5.2, 5.2, 4.77, 7.5, 7.06, 7.06, 7.06, 7.01, 5.81, 6.71, 6.94, 7.2, 8.17, 8.72, 8.56, 8.89, 8.94, 9.83, -7.81, -7.28, -8.82, -11.6, -12.27, -9.8, -5.6, 0.0, 8.49, 4.74, -0.0, -2.12, -1.63, -1.73, -2.26, -8.94, 8.94, 8.94, 8.94, 8.94, 6.33, 6.33, 6.33, 6.61, 6.98, 7.26, 7.26, 7.61, 7.61, 8.24, 8.24, 8.24, 8.24, 8.24, 8.54, 8.54, 8.54, 9.15, 9.15, 9.15, 8.85, 8.53, 8.53, 8.53, 8.85, 8.85, 8.85, 9.17, 9.12, 9.12, 9.42, 9.08, 9.37, 9.01, 9.09, 9.09, 8.82, 8.82, 8.76, 8.76, 8.88, 8.88, 8.67, 9.03, 9.03, 9.36, 9.33, 9.11, 8.91, 8.49, 8.05, 7.6, 7.15, 7.15, 7.6, 7.5, 7.06, 6.64, 6.2, 6.2, 5.64, 5.2, 5.24, 5.24, 7.63, 7.63, 7.63, 6.45, 6.71, 6.64, 8.06, 7.2, 7.82, 8.72, 9.06, 8.94, 9.34, 8.29, 11.02, 12.96, -15.69, -16.1, -16.79, -13.76, -12.39, -11.18, 9.39, 6.01, -0.0, -3.0, -3.8, -4.43, -7.15, -8.49, 0.0, 0.0, 0.0, 0.0, 6.33, 6.33, 6.33, 6.61, 6.87, 7.26, 7.26, 7.61, 7.61, 7.61, 8.24, 8.24, 8.24, 8.24, 8.24, 8.54, 8.85, 8.85, 8.82, 8.82, 8.53, 8.53, 8.53, 8.53, 8.53, 8.53, 8.53, 8.84, 8.84, 8.84, 8.82, 9.08, 9.37, 9.01, 8.79, 8.73, 8.73, 8.82, 8.45, 8.76, 8.55, 8.88, 8.67, 9.03, 9.03, 9.36, 8.95, 8.82, 8.63, 8.8, 8.45, 8.0, 7.6, 7.15, 7.15, 7.15, 7.08, 7.08, 6.64, 6.2, 5.77, 5.64, 5.24, 5.24, 5.57, 8.06, 7.94, 6.71, 7.15, 7.1, 7.53, 7.6, 7.76, 8.56, 9.24, 9.39, 9.35, 9.68, 9.49, 9.8, 14.47, -8.2, -17.85, -16.48, -13.15, -11.18, 10.28, 10.28, -0.0, -0.0, -0.0, 4.92, -6.26, -7.15, 0.0, 0.0, 0.0, 0.0, 5.92, 5.92, 6.33, 6.61, 6.87, 7.26, 7.26, 7.61, 7.61, 7.61, 7.61, 8.24, 8.24, 8.24, 8.24, 8.53, 8.85, 8.53, 8.53, 8.53, 8.53, 8.53, 8.53, 8.53, 8.53, 8.53, 8.53, 8.84, 8.84, 8.52, 8.52, 8.82, 8.82, 9.01, 8.79, 9.09, 8.73, 8.5, 8.82, 8.45, 8.55, 8.55, 8.88, 8.3, 8.63, 8.63, 8.95, 8.82, 8.63, 8.56, 8.33, 8.01, 8.0, 7.6, 7.15, 7.15, 7.15, 7.15, 6.64, 6.65, 6.21, 5.77, 5.24, 5.24, 5.09, 8.38, 7.6, 7.6, 7.6, 7.54, 7.63, 7.63, 8.06, 8.77, 9.35, 9.39, 9.39, 9.35, 9.21, 8.56, 10.28, 15.2, -16.79, -17.53, -15.27, -11.6, -10.73, -9.83, -6.32, -0.0, -0.0, -0.0, -5.36, -6.26, 6.71, 0.0, 0.0, 0.0, 5.92, 5.92, 6.33, 6.61, 6.87, 7.26, 7.26, 7.26, 7.61, 7.61, 7.61, 7.61, 7.9, 7.9, 8.24, 8.53, 8.53, 8.53, 8.53, 8.53, 8.53, 8.53, 8.53, 8.53, 8.53, 8.53, 8.53, 8.84, 8.52, 8.52, 8.52, 8.52, 8.82, 8.49, 8.79, 8.79, 8.73, 8.73, 8.82, 8.45, 8.45, 8.55, 8.18, 8.3, 8.63, 8.63, 8.55, 8.82, 8.3, 8.56, 8.14, 8.29, 7.85, 7.55, 7.15, 7.15, 6.71, 6.71, 6.71, 6.21, 6.21, 5.77, 5.24, 4.77, 4.77, 7.94, 7.5, 7.6, 7.6, 7.6, 8.0, 7.85, 8.33, 8.9, 8.9, 8.94, 8.94, 8.94, 8.45, 8.45, 8.9, 11.62, -7.4, -17.39, -16.91, -13.86, -9.83, -6.26, -5.36, 5.36, -0.0, -0.0, -0.0, -0.0, 6.71, 7.15, 7.15, 7.15, 5.92, 5.92, 6.2, 6.61, 6.61, 6.87, 7.26, 7.26, 7.61, 7.61, 7.61, 7.61, 7.9, 7.9, 8.21, 8.53, 8.53, 8.53, 8.53, 8.53, 8.53, 8.53, 8.53, 8.53, 8.53, 8.53, 8.53, 8.22, 8.52, 8.52, 8.52, 8.52, 8.82, 8.49, 8.49, 8.79, 8.44, 8.73, 8.73, 8.45, 8.45, 8.55, 8.55, 8.3, 8.3, 8.63, 8.24, 8.4, 8.72, 8.3, 8.14, 8.06, 7.85, 7.85, 7.54, 7.15, 7.15, 6.71, 6.26, 6.26, 6.21, 5.78, 5.33, 4.88, 4.88, 6.64, 6.64, 6.94, 7.1, 7.6, 8.29, 8.29, 8.45, 8.45, 8.45, 8.45, 8.49, 8.49, 8.05, 8.05, 8.49, 8.05, 9.67, -10.43, -15.43, -13.86, -4.92, -4.92, -4.92, -5.81, -5.81, -0.0, -0.0, -0.0, 6.26, 6.71, 6.71, 6.71, 6.2, 6.2, 6.2, 6.61, 6.61, 6.61, 7.26, 7.26, 7.61, 7.61, 7.61, 7.61, 7.61, 7.9, 8.21, 8.21, 8.53, 8.53, 8.53, 8.53, 8.53, 8.53, 8.53, 8.53, 8.53, 8.53, 8.53, 8.22, 8.52, 8.52, 8.52, 8.52, 8.19, 8.21, 8.21, 7.88, 8.19, 8.44, 8.73, 8.15, 8.45, 8.23, 8.55, 7.95, 8.3, 7.92, 8.24, 8.4, 8.4, 8.3, 8.56, 8.06, 8.29, 7.54, 7.54, 7.54, 7.15, 7.15, 6.71, 6.26, 5.81, 5.78, 5.33, 5.33, 4.92, 6.26, 6.2, 6.45, 6.65, 7.15, 7.12, 7.2, 7.76, 8.29, 8.0, 8.0, 8.05, 8.05, 8.05, 8.05, 8.05, 8.05, 6.64, 0.0, -14.3, -11.18, -5.81, -4.47, -4.47, -5.36, -6.26, -6.71, 5.36, 5.36, 5.81, 5.81, 5.81, 5.81, 6.2, 6.2, 6.2, 6.2, 6.61, 6.61, 6.98, 7.26, 7.26, 7.61, 7.61, 7.61, 7.61, 7.61, 8.21, 8.21, 8.21, 8.53, 8.53, 8.53, 8.22, 8.22, 8.21, 8.21, 8.53, 8.53, 8.22, 8.22, 8.52, 8.52, 8.52, 8.19, 7.9, 8.21, 8.21, 7.88, 7.88, 8.19, 8.19, 8.15, 8.15, 8.45, 8.23, 8.18, 8.3, 7.92, 8.24, 8.05, 8.4, 8.3, 8.3, 8.06, 8.06, 7.81, 7.54, 7.54, 7.6, 7.15, 6.71, 6.71, 5.81, 5.81, 5.36, 5.36, 5.36, 5.36, 6.71, 6.26, 6.26, 6.26, 6.45, 6.6, 6.55, 6.79, 8.29, 8.0, 8.05, 8.05, 8.05, 8.05, 8.05, 8.05, 7.1, 0.0, -15.65, -12.96, -7.6, -3.58, -0.0, -3.16, -5.2, -7.6, -6.26, 4.92, -0.0, -0.0, -0.0, -0.0, 6.2, 6.2, 6.2, 6.2, 6.61, 6.61, 6.61, 6.98, 7.26, 7.61, 7.61, 7.61, 7.61, 7.61, 7.61, 8.21, 8.21, 8.22, 8.22, 8.22, 8.22, 7.91, 7.9, 7.9, 8.21, 8.21, 8.22, 8.22, 8.22, 8.52, 8.19, 8.19, 7.9, 8.21, 8.21, 7.88, 7.88, 7.88, 7.85, 7.85, 8.15, 8.15, 7.87, 8.18, 8.18, 7.92, 7.92, 8.24, 8.05, 8.4, 8.3, 8.17, 8.06, 7.85, 7.81, 7.54, 7.55, 7.15, 7.15, 6.71, 6.26, 5.81, 5.81, 5.81, 5.81, 5.81, 6.71, 6.26, 6.26, 6.64, 6.71, 6.16, 5.49, 5.37, 7.2, 7.53, 8.0, 8.05, 8.05, 8.0, 8.0, 8.0, 6.45, -14.75, -16.54, -14.3, -10.28, -4.92, -2.53, -1.8, -3.48, -5.06, -4.74, -3.48, -2.0, -2.0, -2.0, -2.0, 6.2, 6.2, 6.2, 6.2, 6.2, 6.61, 6.61, 6.98, 6.98, 7.26, 7.61, 7.61, 7.61, 7.61, 7.61, 7.91, 7.91, 7.91, 7.91, 7.91, 7.91, 7.91, 7.9, 7.9, 7.9, 7.91, 7.91, 8.22, 8.22, 8.52, 8.19, 8.19, 7.9, 8.21, 8.21, 7.59, 7.59, 7.91, 7.58, 7.85, 8.15, 8.15, 7.87, 7.87, 8.18, 7.81, 7.92, 7.54, 8.24, 8.4, 8.0, 8.3, 7.63, 7.85, 7.42, 7.55, 7.55, 7.6, 7.15, 6.71, 6.71, 6.26, 6.26, 6.26, 6.26, 6.23, 5.78, 5.81, 7.15, 7.15, 7.15, 7.6, 6.64, 6.17, 5.6, 6.6, 7.12, 7.81, 7.85, 7.85, 7.37, 7.81, -6.01, -13.86, -15.65, -13.86, -10.73, -7.15, -3.2, -2.53, -3.16, -3.2, -3.4, -2.4, -2.0, -2.0, -2.0, -2.0, 5.52, 5.52, 6.2, 6.2, 6.2, 6.61, 6.61, 6.98, 6.98, 7.26, 7.26, 7.26, 7.26, 7.26, 7.61, 7.61, 7.91, 7.91, 7.91, 7.91, 7.91, 7.91, 7.61, 7.61, 7.61, 7.91, 7.91, 8.22, 8.22, 8.19, 8.19, 8.19, 7.9, 8.21, 7.88, 7.59, 7.59, 7.91, 7.58, 7.58, 7.9, 7.9, 7.87, 7.87, 7.81, 7.81, 8.11, 7.54, 7.85, 8.24, 8.0, 8.0, 8.06, 7.63, 7.85, 7.42, 7.55, 7.55, 7.56, 7.15, 6.71, 6.71, 6.26, 6.26, 6.71, 6.67, 6.67, 5.81, 7.15, 7.15, 7.6, 7.6, 8.0, 7.55, 7.15, 7.1, 6.6, 7.53, 7.63, 7.53, 7.12, 7.37, 0.0, -11.02, -12.96, -11.18, -8.49, -5.36, -3.58, -3.6, -4.11, -3.6, -3.6, -2.8, -3.48, -2.2, -2.2, -2.2, 5.52, 5.52, 5.95, 5.95, 6.2, 6.61, 6.61, 6.98, 6.98, 6.98, 7.26, 7.26, 7.26, 7.26, 7.26, 7.91, 7.91, 7.91, 7.91, 7.91, 7.91, 7.91, 7.61, 7.61, 7.91, 7.91, 7.91, 7.91, 8.22, 8.19, 8.19, 7.9, 7.9, 8.21, 7.59, 7.59, 7.91, 7.91, 7.58, 7.9, 7.9, 7.9, 7.87, 7.87, 7.87, 7.81, 7.81, 8.11, 7.54, 8.24, 8.55, 8.0, 7.89, 8.14, 7.85, 7.85, 8.01, 7.56, 7.56, 7.12, 7.12, 7.12, 6.67, 6.67, 6.67, 6.67, 6.67, 6.66, 6.26, 7.1, 7.6, 7.6, 8.05, 8.05, 8.05, 7.6, 7.81, 7.53, 8.06, 7.63, 7.37, 6.71, 5.36, -8.49, -10.73, -9.83, -7.15, -4.47, -3.13, -4.02, -4.8, -5.06, -5.06, -4.74, -3.79, -4.11, -4.11, -4.11, 5.52, 5.52, 5.95, 5.95, 5.95, 6.61, 6.61, 6.61, 6.98, 6.98, 6.98, 6.98, 7.26, 7.26, 7.26, 7.56, 7.91, 7.91, 7.91, 7.91, 7.91, 7.91, 7.91, 7.91, 7.91, 7.91, 7.91, 7.91, 8.22, 8.19, 8.19, 7.9, 8.21, 8.21, 7.59, 7.59, 7.91, 7.91, 7.91, 7.9, 7.9, 7.9, 7.87, 7.87, 7.87, 8.18, 7.81, 8.11, 7.72, 8.24, 7.85, 8.4, 7.89, 8.14, 8.14, 7.89, 7.89, 7.89, 7.48, 7.48, 7.01, 7.12, 7.12, 7.12, 7.12, 7.12, 7.11, 7.11, 6.66, 7.1, 7.1, 7.1, 7.6, 7.6, 7.6, 7.55, 7.12, 8.06, 7.76, 8.06, 7.15, 7.54, 7.08, -0.0, -9.39, -8.94, -6.71, -4.92, -3.13, -3.13, -4.02, -4.02, -4.8, -6.4, -5.6, -2.84, -2.84, -2.84, 5.52, 5.52, 5.95, 5.95, 5.95, 6.61, 6.61, 6.61, 6.98, 6.98, 6.98, 6.98, 6.98, 6.98, 7.27, 7.56, 7.91, 7.91, 7.91, 7.91, 7.91, 7.91, 7.91, 7.91, 7.91, 7.91, 7.91, 7.91, 8.22, 8.19, 8.19, 7.9, 8.21, 7.88, 7.59, 7.91, 7.91, 7.91, 8.24, 7.61, 7.61, 7.61, 8.23, 7.87, 7.87, 8.18, 7.81, 8.11, 7.72, 8.0, 7.85, 8.14, 8.4, 8.14, 8.14, 7.71, 7.71, 7.76, 7.76, 7.33, 6.9, 7.01, 7.01, 7.01, 7.01, 7.01, 6.98, 6.98, 6.98, 6.88, 7.1, 7.15, 7.15, 7.1, 7.15, 7.6, 7.54, 7.12, 7.76, 8.0, 7.6, 7.85, 8.29, 6.0, -8.67, -9.39, -8.33, -6.51, -5.81, -3.58, -3.13, -3.13, -3.6, -3.79, -3.35, -2.53, -2.53, -2.53, 5.29, 5.29, 5.52, 5.95, 5.95, 5.95, 6.61, 6.61, 6.61, 6.98, 6.98, 6.98, 6.98, 7.27, 7.27, 7.27, 7.56, 7.91, 7.91, 7.91, 7.91, 7.91, 7.91, 7.91, 7.91, 7.91, 7.91, 7.91, 8.22, 7.9, 7.9, 7.9, 8.21, 8.21, 7.59, 7.91, 7.91, 7.91, 7.94, 7.94, 7.61, 7.61, 7.96, 7.87, 7.87, 8.18, 7.81, 8.11, 8.11, 8.4, 7.85, 8.14, 8.4, 8.4, 8.19, 8.19, 7.76, 7.56, 7.56, 7.14, 7.33, 7.28, 6.85, 6.98, 7.01, 6.98, 6.98, 7.42, 7.21, 6.85, 6.14, 7.6, 6.65, 6.64, 7.15, 7.6, 7.6, 7.6, 7.54, 8.0, 8.05, 8.0, 8.0, 6.58, -8.91, -11.18, -11.02, -8.72, -8.33, -7.81, -4.92, -3.58, -3.39, -3.35, -3.35, -3.2, -3.2, -3.2, 5.29, 5.29, 5.29, 5.95, 5.95, 5.95, 6.34, 6.34, 6.61, 6.61, 6.61, 6.9, 7.27, 7.27, 7.27, 7.27, 7.56, 7.56, 7.56, 7.56, 7.91, 7.91, 7.91, 7.91, 7.91, 7.91, 7.91, 8.22, 8.22, 7.9, 7.9, 8.21, 8.21, 8.21, 7.9, 7.91, 7.91, 7.91, 7.59, 7.94, 7.94, 7.61, 7.96, 7.61, 7.87, 8.18, 8.18, 7.81, 8.11, 7.92, 7.85, 8.14, 8.14, 8.4, 7.98, 7.98, 7.98, 7.56, 7.56, 7.56, 7.06, 7.06, 7.06, 7.21, 7.21, 7.21, 7.21, 7.21, 7.63, 7.28, 6.42, 7.1, 6.71, 7.45, 6.64, 7.15, 7.6, 7.6, 7.6, 8.05, 8.05, 8.05, 8.05, 6.71, -8.94, -11.06, -11.03, -9.96, -9.33, -9.13, -8.77, -6.26, -4.02, -3.9, -3.47, -4.92, -4.92, -4.92, 5.29, 5.29, 5.29, 5.7, 5.95, 5.95, 5.95, 6.34, 6.34, 6.34, 6.9, 6.9, 6.9, 6.9, 7.27, 7.27, 7.56, 7.56, 7.56, 7.56, 7.56, 7.56, 7.91, 7.91, 7.91, 7.91, 8.22, 8.22, 8.22, 7.9, 7.9, 8.21, 8.21, 8.21, 7.9, 8.24, 7.91, 7.91, 7.59, 7.94, 7.94, 7.61, 7.61, 7.96, 7.61, 7.61, 7.95, 7.59, 7.92, 7.92, 7.85, 7.85, 8.14, 8.0, 7.6, 7.73, 7.73, 7.73, 7.33, 7.33, 7.2, 6.8, 6.94, 6.94, 6.94, 6.94, 7.21, 7.63, 7.35, 6.94, 6.13, 5.24, 5.33, 7.6, 6.26, 6.71, 7.15, 7.6, 7.6, 7.6, 8.0, 8.05, 8.05, 6.71, 8.49, -10.14, -9.86, -9.2, -9.33, -8.91, -9.21, -7.45, -5.81, -4.92, -5.36, -6.26, -6.26, -6.26, 5.29, 5.29, 5.29, 5.7, 5.95, 5.95, 5.95, 6.34, 6.34, 6.34, 6.9, 6.9, 6.9, 6.9, 7.27, 7.27, 7.56, 7.56, 7.56, 7.56, 7.56, 7.56, 7.91, 7.91, 7.91, 7.91, 8.22, 8.22, 8.22, 7.9, 7.9, 8.21, 8.21, 8.21, 7.9, 8.24, 7.91, 7.91, 7.59, 7.94, 7.94, 7.61, 7.61, 7.96, 7.61, 7.61, 7.95, 7.59, 7.92, 7.92, 7.85, 7.85, 8.14, 8.0, 7.6, 7.73, 7.73, 7.73, 7.33, 7.33, 7.2, 6.8, 6.94, 6.94, 6.94, 6.94, 7.21, 7.63, 7.35, 6.94, 6.13, 5.24, 5.33, 7.6, 6.26, 6.71, 7.6, 7.6, 7.6, 7.6, 8.0, 7.55, 7.6, 7.6, 8.05, -8.94, -9.26, -9.46, -9.46, -9.74, -9.7, -9.26, -8.49, -7.6, -7.15, -7.6, -7.6, -7.6]}, {"header": {"dx": 0.06612293990616946, "dy": 0.0552356325346848, "nx": 98, "ny": 59, "la1": 35.046912555036876, "la2": 31.78801023549047, "lo1": -121.43107172385933, "lo2": -114.95102361305473, "refTime": "2026040720", "parameterCategory": 1, "parameterNumber": 3}, "data": [-9.42, -9.13, -9.13, -8.85, -8.85, -7.95, -7.61, -6.97, -6.7, -6.31, -5.02, -3.94, -3.39, -2.59, -1.75, -0.89, -0.94, -4.11, -7.15, -6.94, -6.8, -6.44, -5.24, -4.89, -4.43, -3.91, -4.43, -4.89, -4.89, -4.98, -6.23, -5.4, -5.36, -5.36, -5.26, -5.4, -5.6, -5.6, -4.89, -3.91, -3.47, -3.97, -5.59, -6.3, -6.5, -7.62, -9.66, -10.73, -10.78, -8.72, -3.45, -2.82, -1.32, 0.0, 4.71, 4.96, 4.2, 1.84, 1.84, 0.0, 0.0, 0.0, 0.0, 0.0, 1.63, 1.73, 1.84, 0.0, 0.0, 0.0, 0.0, 0.0, 0.0, 0.0, 0.0, 0.0, -7.59, -10.4, -12.96, -12.52, -10.28, -7.15, -5.2, -3.16, -1.6, 0.0, 0.0, 0.0, 0.0, 2.6, 7.89, 9.83, 11.18, 12.07, 12.35, 12.27, 10.73, 6.14, -9.42, -9.42, -9.13, -9.13, -8.85, -8.24, -7.61, -7.61, -6.97, -6.07, -5.04, -5.0, -4.25, -3.11, -2.39, -2.58, -1.67, -2.69, -6.51, -6.64, -7.89, -7.6, -6.44, -6.08, -4.43, -4.43, -4.43, -4.89, -5.58, -5.58, -5.6, -5.94, -5.73, -5.81, -5.73, -5.94, -6.16, -6.16, -6.0, -5.58, -5.84, -6.64, -7.59, -8.64, -10.12, -11.43, -12.56, -12.56, -11.29, -5.21, -4.5, -2.67, -1.18, 0.0, 1.84, 3.8, 3.32, 1.84, 0.0, 0.0, 0.0, 0.0, 0.0, 0.0, 0.0, 0.0, 0.0, 0.0, 0.0, 0.0, 0.0, 0.0, 0.0, 0.0, 0.0, 0.0, -4.6, -10.4, -12.96, -12.52, -10.28, -7.15, -5.2, -3.16, -1.6, 0.0, 0.0, 0.0, 0.0, 2.6, 7.89, 9.83, 11.18, 12.07, 12.35, 12.27, 10.73, 6.14, -9.42, -9.42, -9.13, -9.13, -8.85, -8.56, -8.24, -7.61, -6.97, -6.33, -5.7, -4.44, -4.44, -4.07, -3.06, -2.57, -2.7, -2.7, -4.22, -7.6, -6.64, -7.47, -8.3, -6.79, -6.44, -4.43, -4.89, -5.21, -6.0, -6.57, -7.12, -6.94, -6.64, -7.15, -5.73, -7.45, -6.45, -6.57, -7.12, -7.2, -7.69, -9.3, -11.34, -14.19, -15.24, -15.57, -14.22, -12.96, -5.82, -5.24, -4.26, -2.67, -2.09, 0.0, 1.4, 3.6, 1.67, 0.0, 0.0, 0.0, 0.0, 0.0, -1.84, -1.95, -1.95, -1.67, -1.84, -2.02, -2.1, 0.0, 0.0, -3.04, -3.82, -4.8, -3.6, -2.54, -3.11, -11.6, -13.86, -13.41, -10.28, -8.05, -7.21, -5.94, -2.84, -1.98, -1.83, -1.03, 0.0, 6.7, 10.73, 11.62, 11.62, 11.46, 10.79, 9.6, 6.07, 4.34, -9.42, -9.42, -9.13, -9.13, -9.13, -8.56, -8.24, -7.61, -6.97, -6.33, -6.08, -5.72, -5.14, -3.88, -4.2, -4.2, -4.4, -4.6, -4.56, -6.21, -7.15, -7.45, -8.3, -7.21, -6.87, -6.01, -5.58, -5.6, -6.45, -6.94, -7.85, -8.77, -8.29, -8.38, -7.6, -7.89, -8.06, -8.4, -9.36, -10.4, -11.66, -14.13, -15.25, -15.04, -14.13, -13.06, -9.89, -4.71, -4.19, -4.87, -4.42, -2.82, -1.84, 0.0, 1.49, 1.67, 1.47, 0.0, 0.0, 0.0, 0.0, -1.58, -1.84, -3.4, -3.32, -3.49, -3.65, -3.25, -3.68, -3.96, -6.2, -7.59, -10.43, -10.41, -7.44, -4.71, -3.11, -8.85, -15.2, -13.41, -8.49, -5.2, -6.79, -5.51, -3.35, -3.48, -2.99, -2.16, 2.12, 10.52, 12.52, 11.62, 11.18, 10.18, 7.28, 4.29, 4.24, 6.36, -9.42, -9.42, -9.13, -9.13, -9.13, -8.56, -8.56, -8.24, -7.61, -6.97, -6.34, -5.72, -5.9, -4.78, -4.2, -4.4, -4.71, -5.29, -4.92, -6.32, -8.38, -8.05, -7.45, -7.67, -7.28, -8.05, -7.28, -7.47, -7.89, -7.15, -8.05, -9.35, -10.12, -10.08, -9.83, -9.83, -10.18, -10.88, -12.74, -15.15, -14.81, -13.16, -11.09, -10.12, -9.02, -7.59, -4.21, -3.4, -2.66, -2.66, -3.0, -2.12, -1.1, 0.0, 1.32, 1.47, 0.0, 0.0, 0.0, -1.69, -1.47, -1.32, -1.4, -1.58, -3.49, -3.65, -3.65, -2.97, -3.39, -5.4, -7.69, -12.22, -14.39, -14.9, -12.14, -6.7, -4.71, -4.2, -11.62, -11.87, -4.92, -3.48, -4.84, -6.79, -4.09, -3.22, -1.99, 0.0, 11.28, 13.41, 12.52, 10.73, 10.58, 5.6, 3.91, 3.22, 5.51, 8.48, -9.42, -9.42, -9.13, -9.13, -9.13, -8.56, -8.56, -8.24, -7.95, -6.97, -6.34, -5.72, -5.9, -4.4, -3.65, -4.07, -5.06, -5.52, -6.31, -6.7, -7.6, -9.39, -9.26, -8.91, -8.3, -8.72, -8.72, -8.82, -8.82, -9.39, -8.45, -8.77, -8.8, -10.73, -12.07, -11.62, -11.44, -12.6, -13.97, -15.79, -14.42, -11.85, -8.79, -7.9, -7.72, -7.51, -5.4, -2.95, -1.25, 0.0, 0.0, 0.0, 0.0, 0.0, 0.0, 0.0, 0.0, 0.0, 0.0, -1.76, -1.84, -1.23, -1.4, -1.58, -1.47, -3.11, -3.65, -3.32, -2.69, -3.25, -6.44, -11.09, -14.75, -15.65, -15.65, -13.59, -7.44, -5.6, -5.36, -9.11, -5.36, -5.21, -5.21, -6.32, -5.95, -1.95, 1.95, 10.79, 14.11, 13.41, 11.18, 12.35, 8.4, 4.74, 3.72, 1.99, 7.6, 9.54, -9.42, -9.42, -9.13, -9.13, -9.13, -8.85, -8.56, -8.56, -8.24, -7.33, -6.98, -6.01, -5.9, -4.4, -3.53, -4.25, -4.44, -5.35, -6.57, -6.71, -6.14, -7.12, -9.32, -10.47, -10.14, -10.14, -10.58, -10.58, -10.58, -8.89, -9.83, -8.56, -8.21, -7.2, -10.66, -12.07, -12.39, -11.62, -12.86, -12.93, -13.15, -11.71, -11.72, -11.26, -11.33, -7.78, -6.63, -3.77, -2.21, -1.73, 0.0, 0.0, 0.0, 0.0, 0.0, 0.0, 0.0, 0.0, 0.0, 0.0, 0.0, 0.0, 0.0, -1.32, -1.18, -1.47, -1.93, -3.32, -2.82, -1.75, 0.0, 0.0, -11.45, -13.88, -14.9, -15.65, -13.86, -8.06, -5.51, -9.83, -7.6, -6.32, -6.01, -4.0, -3.25, 3.39, 9.66, 12.72, 13.67, 12.79, 11.91, 11.45, 5.58, 4.58, 2.82, 2.16, 8.49, 9.11, -9.42, -9.42, -9.13, -9.13, -9.13, -9.13, -8.56, -8.56, -8.24, -7.93, -7.28, -6.95, -6.48, -5.7, -5.92, -4.71, -5.09, -4.87, -5.86, -6.7, -5.86, -3.88, -5.37, -6.94, -10.73, -10.28, -10.73, -11.4, -11.46, -11.06, -10.28, -11.09, -10.46, -8.93, -10.18, -12.07, 0.0, 11.18, -11.03, -10.73, -11.18, -10.65, -12.46, -11.99, -8.43, -6.32, -5.44, -3.99, -3.8, -3.6, -1.3, -1.52, 0.0, -1.4, -1.25, -1.25, -1.2, -1.2, -1.26, 0.0, 0.0, 0.0, 0.0, 0.0, 0.0, 0.0, -1.54, -1.75, -1.32, 0.0, 2.17, 9.2, 10.0, -0.0, -6.0, -11.87, -12.52, -12.07, -12.52, -14.3, -15.18, -12.07, -4.2, 0.0, 3.39, 8.53, 10.73, 12.04, 12.04, 11.84, 10.38, 4.6, 3.91, 3.55, 2.82, 3.76, 7.81, 8.49, -9.42, -9.42, -9.13, -9.13, -9.13, -9.46, -8.87, -8.56, -8.56, -8.24, -8.52, -9.14, -9.66, -8.73, -8.35, -7.9, -7.26, -6.84, -6.45, -6.67, -6.16, -5.2, -4.6, -2.09, 2.32, 4.46, 3.4, -9.83, -12.07, -11.62, -11.62, -12.83, -11.88, -4.38, 0.0, 10.73, 10.84, 9.6, 6.64, -5.58, -8.05, -8.38, -8.48, -7.47, -5.72, -3.22, -1.84, -2.06, -1.25, -1.49, -2.69, -3.2, -2.82, -2.82, -2.69, -2.46, -2.58, -2.82, -2.82, -1.33, -1.47, -1.1, -0.88, -1.05, 0.0, 0.0, -1.54, -1.75, 0.0, 0.0, 1.95, 6.64, 11.62, 11.45, 7.9, 0.0, -8.94, -10.28, -12.96, -12.65, -13.76, -14.3, -9.83, 0.0, 6.64, 8.55, 7.59, 10.0, 9.6, 8.8, 4.65, 3.48, 3.35, 3.72, 3.72, 3.91, 7.47, 7.89, -9.42, -9.42, -9.13, -9.46, -9.13, -9.46, -8.87, -8.56, -8.56, -8.53, -9.15, -10.06, -9.12, -9.84, -9.76, -10.18, -10.94, -10.48, -10.01, -9.16, -6.87, -4.6, 0.0, 4.83, 6.9, 5.37, 5.37, 5.46, -3.68, -11.28, -12.52, 0.0, 12.07, 10.0, 8.94, 9.75, 8.94, 7.5, 6.71, 5.36, 3.13, -2.53, -2.99, -2.8, -1.03, 0.0, 0.89, 1.96, 0.89, 0.0, -1.01, -3.91, -3.91, -4.14, -4.0, -3.87, -4.23, -4.4, -4.4, -4.6, -4.4, -3.68, -3.6, -2.8, -1.32, -1.18, -1.54, -1.54, 0.0, 0.0, 0.0, 3.39, 10.8, 11.62, 10.73, 0.0, 0.0, 0.0, -11.18, -9.8, -11.38, -13.76, -13.41, 0.0, 0.0, 3.2, 4.46, 4.71, 5.69, 3.22, 2.4, 2.68, 3.49, 3.91, 3.72, 4.19, 6.28, 6.4, -9.42, -9.76, -9.46, -9.46, -9.46, -9.46, -9.17, -8.87, -8.56, -8.85, -9.17, -10.39, -9.48, -8.24, -8.72, -9.64, -11.35, -12.45, -12.35, -12.9, -7.8, 15.59, 16.05, 14.11, 12.07, 7.6, 5.36, 5.36, 8.06, 7.59, 10.73, 6.26, 6.26, 5.7, 5.81, 7.81, 8.91, 6.4, 5.6, 5.15, 4.74, 2.8, 1.03, 0.0, 0.0, 1.84, 2.82, 1.84, 0.94, 0.0, -0.94, -3.0, -3.91, -5.06, -6.32, -6.58, -6.76, -7.02, -7.73, -7.15, -6.32, -5.03, -5.69, -5.37, -4.83, -3.15, -3.11, -2.97, -2.82, -2.99, -2.28, -3.39, 0.0, 0.0, -7.27, -7.59, 0.0, 0.0, 0.0, -0.0, -10.12, -13.02, -14.75, -12.96, -4.11, -3.0, 0.0, 0.0, 0.0, 0.0, 1.08, 2.0, 2.95, 3.63, 3.72, 3.97, 5.06, 5.49, -9.42, -9.42, -9.46, -9.46, -9.46, -9.46, -9.17, -9.17, -8.87, -8.87, -9.46, -10.11, -10.09, -8.87, -6.92, -5.64, -4.73, -5.4, -6.42, -5.18, 9.48, 10.0, 7.87, 9.2, 5.58, 4.43, 3.47, 1.98, 5.2, 6.26, 6.26, 5.73, 5.7, 5.26, 4.98, 4.98, 4.81, 5.37, 5.37, 4.42, 3.77, 3.55, 2.64, 1.4, 1.63, 1.84, 1.4, 0.0, 0.0, -2.99, -2.82, -3.72, -4.74, -5.49, -6.18, -6.45, -8.37, -9.82, -10.41, -8.23, -4.46, -2.54, -6.01, -6.08, -6.01, -5.59, -5.95, -7.26, -8.38, -7.27, -7.27, -7.59, -7.81, -7.44, -8.91, -10.18, -9.6, 0.0, 0.0, 12.52, 0.0, -12.07, -12.52, -14.75, -10.73, -6.79, -6.7, -4.71, -2.4, 0.0, 0.0, 1.55, 2.0, 1.99, 1.98, 3.0, 4.58, 4.58, -9.42, -9.42, -9.13, -9.46, -9.46, -9.46, -9.17, -9.17, -9.17, -9.17, -9.48, -9.48, -10.09, -9.5, -8.18, -6.36, -4.74, -2.8, -2.23, -1.48, 0.0, 4.4, 6.7, 3.35, 2.2, 1.55, 1.55, 1.99, 4.43, 6.0, 5.81, 5.51, 5.51, 5.51, 5.51, 5.6, 4.81, 4.58, 3.55, 2.82, 2.82, 1.84, 0.96, 0.96, 1.7, 2.98, 1.98, 0.0, -1.49, -2.82, -3.72, -4.58, -5.06, -4.29, -4.96, -2.97, -5.69, -10.28, -11.4, -0.0, 6.26, 6.0, 1.84, -3.4, -5.03, -3.72, -4.29, -8.55, -10.6, -11.03, -10.18, -9.13, -8.3, -7.89, -8.49, -10.73, -11.18, -9.2, -7.59, 0.0, 0.0, 0.0, 0.0, 0.0, -12.52, -12.14, -10.73, -7.37, -6.8, -3.2, -2.6, 0.0, 0.0, 0.0, 1.32, 2.8, 3.72, 3.72, -9.42, -9.42, -9.13, -9.46, -9.46, -9.17, -9.17, -9.17, -9.17, -9.17, -9.48, -9.48, -9.5, -9.5, -9.22, -8.16, -6.33, -5.18, -3.39, -2.26, -2.1, -2.37, 0.0, 8.22, 3.53, 2.49, 2.17, 1.98, 3.22, 5.6, 6.26, 5.73, 6.0, 5.2, 5.6, 5.21, 4.01, 3.55, 1.96, 0.89, 0.83, 0.89, 0.0, 1.7, 3.79, 4.84, 3.79, 3.0, 0.0, 0.0, 0.0, -3.39, 0.0, 12.39, 11.87, 8.22, 2.97, -8.05, -3.39, 4.89, 7.55, 7.94, 6.8, 3.47, 0.0, -1.98, -2.8, -4.54, -9.54, -8.05, -10.28, -10.73, -10.52, -9.33, -4.4, -5.0, -9.6, -5.37, -7.2, -7.6, -5.06, 0.0, 0.0, 0.0, 0.0, -9.48, -12.96, -9.75, -5.81, -5.6, -5.6, -3.79, -2.2, 0.0, 0.0, 1.05, 1.98, 2.8, -9.42, -9.13, -9.46, -9.46, -9.46, -9.17, -9.17, -9.17, -9.17, -9.48, -9.48, -9.5, -9.5, -9.5, -9.5, -8.83, -7.48, -6.33, -5.18, -4.03, -3.6, -3.14, -3.85, 0.0, 0.0, 0.0, 0.0, 8.94, 5.81, 4.92, 4.82, 4.57, 5.6, 5.6, 6.0, 6.52, 5.03, 2.82, 1.32, 0.0, 0.0, 0.0, 1.41, 3.22, 4.84, 5.64, 6.07, 4.43, 3.0, 3.0, 3.6, 5.21, 7.37, 7.15, 6.51, 5.58, 4.74, 6.01, 8.05, 6.94, 7.15, 7.15, 6.94, 6.4, 5.58, 3.47, 1.63, 0.0, -4.11, -6.94, -6.4, -6.17, -0.0, 4.8, 9.2, 8.91, -0.0, -1.6, -4.0, -5.36, -5.94, -6.0, -6.32, 0.0, 0.0, 5.6, 0.0, -7.9, -7.6, -7.15, -6.79, -6.71, -5.36, -2.4, 0.0, 1.05, 1.14, 1.14, -9.66, -9.46, -9.46, -9.46, -9.46, -9.17, -9.17, -9.17, -9.17, -9.48, -9.19, -9.5, -9.5, -9.5, -9.5, -8.85, -8.16, -7.03, -6.36, -5.21, -4.24, -4.04, -3.57, -2.56, 0.0, 0.0, 1.55, 1.64, 3.11, 2.82, 3.49, 2.84, 2.51, 4.43, 6.0, 5.46, 4.58, 1.84, 0.0, 0.0, 0.0, 1.99, 3.47, 4.43, 4.84, 6.07, 6.07, 4.84, 4.84, 4.43, 4.43, 5.58, 6.0, 5.21, 4.84, 3.22, 3.47, 4.43, 6.4, 7.06, 6.02, 6.07, 5.21, 5.21, 5.58, 5.58, 5.06, 4.83, 0.0, -6.26, -2.16, 3.11, 9.77, 11.18, 9.39, 6.17, 4.47, 0.0, -5.36, -5.81, -7.15, -7.6, -7.6, -7.6, -7.6, 0.0, 7.27, 6.95, 0.0, 0.0, -8.49, -5.51, -5.36, -1.84, -1.41, 0.0, 0.0, 0.0, -9.66, -10.01, -9.46, -9.46, -9.46, -9.17, -9.17, -9.17, -9.48, -9.48, -9.19, -9.5, -9.5, -9.5, -9.21, -8.85, -8.18, -7.76, -6.4, -5.73, -4.77, -4.04, -3.91, -1.83, -0.95, 0.0, 0.0, 0.0, 0.0, 0.0, 0.0, 1.32, 3.22, 5.58, 5.6, 6.16, 5.21, 3.47, 1.7, 2.2, 3.79, 4.29, 6.0, 4.98, 6.0, 6.58, 6.0, 5.21, 4.84, 4.11, 4.11, 4.84, 4.84, 4.11, 3.47, 2.8, 3.0, 4.02, 5.72, 5.72, 5.72, 5.21, 3.22, 3.22, 3.47, 3.22, 3.72, 3.2, 1.73, 0.0, 3.8, 8.59, 12.46, 11.62, 7.54, 6.99, 5.58, 4.74, -4.43, -6.26, -6.71, -7.6, -7.81, -7.81, -8.49, -6.71, 0.0, 0.0, 1.55, 5.69, -6.32, -4.46, -6.26, -3.0, -2.12, -1.7, 0.0, 0.0, -9.66, -10.01, -9.72, -9.46, -9.46, -9.17, -9.17, -9.48, -9.48, -9.19, -9.19, -9.5, -9.5, -9.5, -9.16, -8.49, -8.72, -8.0, -6.64, -5.46, -3.68, -3.36, -3.01, -1.66, -0.86, -0.89, -2.0, -2.21, -1.26, -1.58, -2.13, 0.0, 2.83, 5.6, 5.09, 7.06, 6.71, 6.26, 5.51, 5.51, 6.07, 6.51, 6.0, 6.0, 6.64, 6.52, 5.72, 4.74, 3.47, 3.22, 2.98, 3.79, 2.98, 3.22, 2.8, 1.63, 3.0, 4.02, 4.02, 4.74, 4.02, 2.8, 3.47, 1.41, 0.0, 0.0, 1.05, 1.63, 4.4, 7.9, 12.07, 11.46, 10.73, 7.15, 6.88, 6.21, 5.95, 4.89, 4.43, 0.0, -5.36, -4.43, -5.06, -8.91, -8.05, -6.8, -5.69, 0.0, 1.84, 4.46, 6.64, -6.26, -6.71, -5.37, 0.0, 0.0, 0.0, 0.0, -9.66, -10.01, -10.01, -9.72, -9.46, -9.46, -9.17, -9.48, -9.48, -9.19, -9.19, -9.5, -9.21, -9.21, -9.21, -10.05, -8.49, -8.75, -6.72, -4.81, -3.93, -4.3, -5.35, -4.64, -3.97, -5.18, -6.2, -4.05, 0.0, 0.0, -9.17, -5.4, 0.0, 6.32, 6.36, 6.26, 6.26, 5.2, 5.64, 5.51, 4.57, 4.98, 5.21, 6.0, 6.08, 5.37, 3.91, 2.66, 3.0, 2.8, 3.22, 2.98, 1.7, 1.7, 1.52, 1.52, 2.8, 3.0, 3.0, 3.0, 1.52, 1.52, 1.52, 0.0, 0.0, 0.0, 0.0, 0.0, 2.83, 6.44, 5.69, 6.18, 8.24, 8.55, 5.58, 5.6, 6.0, 6.0, 5.6, 5.2, 5.51, 2.4, -0.0, -4.4, -6.95, -8.94, 0.0, 0.0, 7.27, 6.64, 4.22, 0.0, -7.6, 0.0, 0.0, 0.0, 0.0, 0.0, -9.66, -9.66, -10.01, -9.72, -9.46, -9.46, -9.17, -9.48, -9.48, -9.19, -9.19, -9.5, -9.21, -9.21, -9.5, -8.59, -8.51, -8.54, -8.18, -6.43, -6.6, -7.2, -8.74, -8.31, -9.22, -10.18, -13.99, -0.0, 8.43, 9.48, -0.0, 0.0, 0.0, 4.0, 5.69, 6.0, 5.81, 5.51, 5.51, 4.09, 3.58, 3.58, 2.84, 2.84, 3.15, 3.91, 2.82, 2.66, 1.63, 2.8, 3.22, 3.22, 3.22, 3.22, 1.99, 1.84, 3.2, 1.84, 1.72, 0.0, 0.0, 0.0, 0.0, 0.0, 0.0, 0.0, 0.0, 0.0, 1.96, 2.67, 2.57, 3.29, 3.04, 4.55, 5.64, 8.4, 7.89, 8.38, 6.88, 6.17, 6.71, 7.89, 6.32, 4.71, 3.8, -0.0, -0.0, -0.0, 0.0, 0.0, 1.84, 6.01, 8.94, 5.69, 7.6, 6.8, 4.43, 4.43, -9.94, -9.66, -9.66, -10.01, -9.72, -9.46, -9.17, -9.48, -9.48, -9.19, -9.19, -9.5, -9.21, -9.21, -9.8, -9.5, -8.87, -8.54, -8.85, -9.7, -10.47, -10.33, -11.25, -11.38, -10.97, -9.42, -7.0, -0.0, 9.48, 7.27, 8.94, 0.0, 0.0, 0.0, 3.4, 3.0, 2.6, 4.11, 5.6, 4.43, 4.11, 4.11, 4.43, 3.91, 3.43, 3.91, 2.82, 1.4, 2.8, 3.22, 4.11, 3.22, 3.22, 3.22, 3.47, 2.99, 2.64, 1.52, 0.0, 0.0, 0.0, 0.0, 0.0, 0.0, 0.0, 0.0, 0.0, 0.96, 0.95, 2.06, 2.28, 0.0, -1.46, -4.54, 0.0, 13.86, 13.86, 12.96, 10.14, 7.21, 6.36, 7.06, 8.05, 6.4, 5.58, 1.8, -0.0, -0.0, -0.0, 0.0, 0.0, 8.8, 9.83, 6.36, 6.71, 6.36, 2.4, 2.4, -9.94, -9.66, -9.66, -9.66, -9.72, -9.46, -9.17, -9.48, -9.48, -9.19, -9.19, -9.5, -9.21, -9.21, -9.5, -9.5, -8.86, -8.53, -9.76, -11.34, -10.71, -8.91, -10.43, -11.3, -11.13, -8.33, -4.37, 0.0, 0.0, 7.15, 6.71, 4.43, 0.0, 0.0, 0.0, 0.0, 0.0, 1.55, 2.6, 3.47, 4.43, 4.43, 4.43, 4.43, 4.11, 3.12, 2.82, 1.63, 3.22, 5.21, 5.21, 4.84, 3.22, 3.22, 3.47, 3.0, 2.64, 1.84, 0.0, -2.66, -2.8, -1.98, -1.84, -1.84, -1.05, 0.0, 0.0, 0.0, 1.03, 1.58, 2.69, 0.0, -9.8, -16.09, 4.0, 9.8, 15.69, 16.09, 13.41, 10.18, 7.63, 6.45, 6.61, 6.26, 6.71, 4.92, 4.92, 4.77, 5.37, -0.0, 7.9, 10.28, 7.6, 4.92, 4.47, 3.79, 2.6, 2.6, -9.94, -9.94, -9.94, -9.66, -9.72, -9.46, -9.46, -9.48, -9.48, -9.48, -9.19, -9.5, -9.21, -9.21, -9.5, -9.21, -9.21, -8.87, -9.73, -10.59, -9.42, -7.36, -7.13, -8.83, -9.8, -9.2, -6.37, -4.58, -2.95, -2.28, 0.0, 0.0, 0.0, 0.0, 0.0, 0.0, 0.0, 0.0, 1.19, 2.6, 2.8, 3.76, 3.76, 4.43, 4.19, 3.48, 3.0, 4.11, 6.07, 6.51, 6.0, 5.21, 4.43, 3.47, 3.47, 2.8, 2.8, 2.82, 1.49, -1.99, -4.89, -4.43, -3.91, -2.99, -2.2, 0.0, 0.0, 0.0, 0.96, 1.03, 2.82, 2.6, -6.2, -2.69, -0.0, -0.0, 6.4, 13.39, 15.34, 13.86, 10.18, 7.97, 6.71, 6.64, 6.64, 6.64, 6.71, 7.15, 9.55, 5.2, 3.04, 3.8, 3.6, 3.58, 4.02, 3.16, 2.2, 2.2, -9.94, -9.94, -9.94, -9.66, -9.72, -9.46, -9.46, -9.48, -9.48, -9.48, -9.19, -9.5, -9.21, -9.21, -9.21, -9.21, -9.21, -9.44, -10.02, -9.88, -9.68, -7.6, -6.24, -6.0, -7.44, -8.2, -7.92, -5.33, -4.81, -4.75, -3.98, -2.83, 0.0, 0.0, 0.0, 0.0, 0.0, 0.0, 0.0, 1.05, 2.6, 2.8, 4.02, 3.76, 4.65, 4.22, 4.84, 6.07, 6.58, 7.01, 6.64, 4.74, 4.43, 4.43, 3.47, 2.8, 1.84, 3.0, 3.4, 0.0, -4.98, -5.94, -4.29, -2.48, -2.0, 0.0, 0.98, 0.0, 0.0, 0.0, 0.0, 6.64, -3.53, -2.99, -2.98, -0.0, -0.0, 5.6, 11.9, 14.11, 12.52, 9.83, 8.49, 7.98, 7.52, 7.08, 7.1, 8.87, 9.39, 6.79, -0.0, -0.0, -0.0, 0.0, 4.02, 0.0, 0.0, 0.0, -9.94, -9.94, -9.94, -9.66, -9.66, -9.66, -9.46, -9.17, -9.48, -9.48, -9.19, -9.5, -9.5, -9.21, -9.5, -9.21, -8.86, -9.44, -9.73, -10.3, -9.88, -8.93, -7.38, -5.91, -6.18, -6.85, -7.13, -5.73, -5.73, -5.45, -4.93, -3.53, -1.93, 0.0, 0.0, 0.0, 0.0, 0.0, 0.0, 0.0, 1.32, 2.49, 2.66, 3.0, 3.47, 4.84, 5.51, 5.26, 4.85, 4.85, 4.3, 6.0, 5.21, 5.21, 4.43, 3.0, 3.0, 2.16, 3.0, 1.84, -3.16, -4.34, -3.82, 0.0, 4.0, 3.72, 2.95, 1.99, 0.0, 0.0, 0.0, 0.0, -4.8, -6.42, -5.06, -1.73, -0.0, 2.0, 4.96, 10.35, 12.72, 12.39, 11.18, 10.28, 7.97, 7.52, 7.98, 7.81, 6.88, 5.09, 5.81, -1.95, -1.84, -0.0, 0.0, 0.0, 0.0, 0.0, -9.59, -9.59, -9.94, -9.66, -9.66, -9.66, -9.46, -9.46, -9.48, -9.48, -9.48, -9.5, -9.5, -9.21, -9.5, -9.21, -9.16, -9.44, -10.02, -9.61, -9.61, -9.16, -8.68, -7.6, -7.0, -5.81, -5.33, -5.36, -4.58, -4.81, -5.08, -4.24, -3.07, -3.25, -1.93, 0.0, 0.0, 0.0, 0.0, 0.0, 0.0, 1.25, 1.49, 1.49, 1.73, 3.0, 6.0, 6.26, 6.26, 5.81, 5.29, 4.66, 5.6, 6.0, 5.72, 4.29, 3.0, 2.8, 3.0, 3.2, 1.98, 0.0, 0.0, 2.68, 4.47, 4.98, 4.11, 3.22, 0.0, -0.95, -0.89, 0.0, -5.69, -8.22, -9.17, -6.44, -0.0, 1.1, 2.99, 6.32, 10.12, 12.79, 13.28, 10.73, 6.26, 7.15, 6.94, 7.37, 6.88, 6.07, 5.94, -0.0, -2.06, -0.0, -0.0, 0.0, 0.0, 0.0, -9.59, -9.59, -9.94, -9.94, -9.66, -9.42, -9.13, -9.46, -9.17, -9.48, -9.48, -9.19, -9.5, -9.21, -9.21, -8.87, -9.16, -9.44, -9.73, -9.61, -9.61, -9.5, -9.02, -8.16, -7.93, -6.8, -5.63, -4.81, -4.99, -4.28, -4.48, -4.32, -4.15, -3.53, -3.39, -2.49, -2.7, -1.62, 0.0, 0.0, 0.0, 0.0, 0.0, 0.0, 0.0, 0.0, 0.0, 7.15, 6.71, 6.26, 5.81, 4.92, 4.41, 4.24, 5.37, 4.43, 4.02, 4.43, 3.63, 2.8, 1.49, 1.03, 1.84, 4.34, 6.58, 5.94, 5.24, 1.84, 0.95, 0.0, -0.89, -0.84, 0.0, -6.32, -8.4, -6.71, -4.24, -0.0, 1.98, 3.72, 7.59, 12.79, 14.16, 10.62, 7.08, 6.71, 6.94, 6.94, 7.08, 7.1, 6.51, 6.02, -0.0, -0.0, -0.0, -0.0, 0.0, 0.0, -9.59, -9.59, -9.59, -9.94, -9.66, -9.42, -9.42, -9.13, -9.46, -9.17, -9.48, -9.19, -9.5, -9.21, -9.21, -8.87, -9.16, -9.44, -9.33, -9.33, -9.66, -9.23, -9.23, -9.02, -8.5, -7.71, -6.6, -6.2, -5.67, -4.93, -4.64, -3.97, -3.82, -2.82, -3.08, -3.25, -3.61, -2.7, -1.33, -1.33, 0.0, 0.0, 0.0, 0.0, -2.54, -5.69, -8.49, 5.37, 6.79, 6.71, 5.81, 5.36, 4.82, 4.57, 4.22, 4.54, 4.74, 4.74, 4.89, 3.47, 0.95, 0.89, 1.98, 5.6, 6.57, 6.9, 3.55, 1.96, 0.0, 0.0, 0.0, -0.89, -0.89, 0.0, 0.0, 7.6, -0.0, -1.62, -0.0, 1.98, 3.6, 11.16, 14.61, 11.46, 8.82, 7.6, 6.2, 7.08, 7.15, 7.15, 7.08, 6.88, 7.15, 2.54, -0.0, -0.0, 0.0, 0.0, -9.59, -9.59, -9.59, -9.37, -9.42, -9.42, -9.42, -9.13, -9.13, -9.46, -9.48, -9.19, -9.19, -9.5, -9.21, -8.87, -9.16, -9.06, -9.33, -9.33, -9.23, -9.23, -9.23, -8.76, -8.26, -8.36, -7.58, -6.79, -6.0, -5.48, -4.93, -4.64, -3.68, -3.82, -2.82, -3.51, -2.95, -3.11, -2.39, -1.39, -1.33, 0.0, 0.0, 0.0, 0.0, -6.32, -8.24, -0.0, 6.8, 6.71, 5.81, 5.2, 4.77, 4.4, 3.93, 3.83, 4.43, 5.36, 4.89, 3.47, 1.84, 0.0, 2.8, 6.32, 7.2, 4.87, 3.77, 0.89, -0.89, -1.84, -1.75, -1.75, -1.75, -1.05, 3.98, 11.02, 9.97, -0.0, -0.96, -0.0, 1.84, 8.53, 12.65, 13.67, 9.39, 5.36, 5.36, 6.26, 6.26, 6.26, 6.17, 5.94, 5.82, 7.6, -0.0, -0.0, -7.15, -7.15, -9.86, -9.86, -9.37, -9.37, -9.37, -9.08, -9.42, -9.13, -9.13, -9.46, -9.17, -9.48, -9.19, -9.19, -9.5, -9.17, -9.16, -9.06, -9.06, -9.38, -9.23, -9.23, -9.12, -9.12, -8.36, -8.1, -7.58, -7.34, -6.57, -6.1, -5.48, -4.93, -4.33, -3.68, -3.53, -3.39, -3.51, -2.95, -3.25, -2.39, -2.39, -1.33, -1.26, 0.0, 1.01, -1.49, -8.06, -0.0, 5.26, 4.92, 4.77, 4.66, 4.4, 4.4, 3.93, 3.93, 3.58, 3.49, 4.11, 3.91, 2.12, 1.84, 4.58, 6.18, 4.58, 4.58, 3.55, 2.99, -0.89, -3.77, -4.26, -2.67, -2.06, -1.76, 5.6, 13.59, 11.95, 8.24, -0.0, -1.05, -0.0, 3.65, 7.78, 12.79, 12.96, 6.71, 5.36, 5.26, 4.92, 6.71, 7.45, 7.47, 6.63, 7.06, 8.49, -0.0, -8.05, -8.05, -9.3, -9.3, -9.66, -9.37, -9.37, -9.08, -9.08, -9.42, -9.13, -9.13, -9.17, -9.17, -9.19, -9.19, -8.87, -9.17, -9.46, -9.09, -9.38, -9.38, -8.96, -9.3, -9.3, -8.85, -8.58, -8.1, -7.85, -7.44, -6.9, -6.9, -6.31, -6.31, -5.6, -5.06, -4.17, -4.3, -3.39, -3.51, -3.82, -3.25, -2.39, -2.39, -2.28, -1.2, 0.0, -1.32, 0.0, 5.58, 3.74, 3.32, 3.2, 2.98, 2.84, 3.48, 3.48, 3.48, 3.48, 3.79, 3.48, 3.22, 2.8, 2.82, 4.42, 3.77, 2.82, 2.64, 2.8, 2.82, 0.0, -3.2, -3.91, -1.03, 0.0, 0.0, 13.41, 10.75, 13.7, 10.58, 5.21, -0.0, -0.88, -0.0, -0.0, 7.44, 12.72, 11.62, 6.64, 3.22, 3.48, 4.02, 4.92, 4.77, 5.37, 5.93, 8.48, 0.0, 0.0, 0.0, -9.3, -9.3, -9.3, -9.37, -9.37, -9.37, -9.08, -9.08, -9.13, -9.13, -9.17, -9.17, -9.17, -9.19, -8.87, -9.17, -9.46, -9.09, -9.09, -9.09, -8.69, -9.3, -9.3, -8.85, -8.58, -7.85, -7.93, -7.19, -6.94, -6.77, -7.79, -7.25, -6.43, -5.4, -4.58, -4.68, -4.3, -4.44, -3.51, -3.82, -3.11, -3.11, -2.28, -2.17, -2.17, -1.04, 0.93, 3.6, 3.47, 3.07, 2.68, 1.98, 1.6, 1.6, 1.8, 2.68, 2.95, 3.22, 3.22, 2.99, 2.6, 2.82, 3.4, 2.26, 1.84, 0.89, 0.0, 0.0, 1.4, 0.0, 0.96, 2.8, 3.15, 1.4, 0.0, 6.8, 7.36, 9.3, 7.15, 1.93, -1.49, -1.83, -1.19, -0.0, -0.0, 0.0, 0.0, 0.0, 0.0, 4.11, 3.6, 3.58, 4.0, 3.93, 8.06, 0.0, 0.0, 0.0, -9.3, -9.3, -9.3, -9.3, -9.37, -9.37, -9.08, -9.08, -9.13, -9.13, -9.46, -9.17, -9.17, -9.17, -9.17, -9.17, -9.17, -8.81, -8.81, -9.09, -9.42, -9.02, -9.02, -8.58, -8.58, -8.66, -7.93, -7.93, -7.19, -7.19, -7.24, -7.73, -6.87, -6.33, -5.77, -5.3, -4.68, -4.8, -4.44, -4.6, -3.82, -3.99, -3.11, -3.3, -2.28, -1.04, 0.0, 0.99, 2.21, 2.26, 2.32, 2.4, 1.08, 1.8, 1.33, 1.33, 1.84, 2.68, 2.95, 1.83, 2.4, 2.82, 2.54, 1.96, 0.89, 0.0, 0.0, 0.0, 0.0, 1.4, 3.6, 4.26, 2.83, 0.85, 0.0, 10.75, 1.54, 1.05, 1.66, -0.0, -1.75, -4.4, -4.96, -2.4, -3.11, -11.62, -3.96, -3.82, 0.0, 5.06, 4.8, 3.39, 3.39, 3.22, 5.58, 8.49, -0.0, -0.0, -9.3, -9.3, -9.3, -9.3, -9.02, -9.37, -9.37, -9.08, -9.13, -9.13, -9.46, -9.17, -9.17, -9.17, -9.17, -9.17, -9.17, -9.48, -9.13, -9.13, -9.42, -9.02, -9.02, -8.74, -8.66, -8.66, -7.93, -8.2, -8.46, -7.79, -6.94, -7.26, -7.78, -6.97, -6.09, -5.86, -5.3, -4.8, -5.14, -4.25, -4.6, -3.65, -3.65, -3.11, -2.97, -2.13, -1.09, 0.0, 0.0, 0.0, 1.49, 1.32, 1.23, 1.14, 0.96, 1.66, 1.33, 1.84, 1.84, 1.84, 3.0, 2.66, 2.66, 1.4, 0.89, 0.0, 0.0, 0.0, 0.0, 1.4, 2.83, 4.0, 1.4, 0.0, 0.0, 4.66, -0.0, -0.0, -0.0, -0.0, -0.0, -3.53, -3.68, -3.68, -3.68, -11.87, -11.99, -7.44, -2.19, 6.32, 4.8, 2.84, 3.13, 2.97, 4.84, 8.05, -0.0, -0.0, -9.3, -9.3, -9.3, -9.3, -9.3, -9.02, -9.37, -9.08, -9.42, -9.13, -9.46, -9.17, -9.17, -9.17, -8.87, -8.87, -9.17, -9.17, -8.83, -9.13, -9.13, -9.13, -8.74, -8.74, -8.66, -8.38, -8.38, -8.2, -8.2, -7.44, -6.43, -6.08, -7.54, -7.26, -6.84, -6.2, -6.2, -5.41, -5.41, -4.92, -4.25, -4.4, -3.65, -3.65, -2.83, -3.11, -2.13, -1.16, 0.0, 0.0, 0.0, 0.0, 0.0, 1.4, 1.23, 1.14, 1.83, 1.49, 1.6, 1.8, 1.8, 2.66, 2.66, 1.4, 1.4, 0.0, 0.89, 0.95, 0.0, 0.89, 1.73, 1.4, 1.47, 1.11, 1.38, 1.48, 0.0, -7.19, -2.54, -0.0, -0.0, -5.4, -5.4, -0.0, -3.96, -13.44, -13.19, -7.78, 0.0, 6.0, 4.0, 2.48, 1.4, 2.68, 4.4, 7.6, -0.0, -0.0, -9.58, -9.58, -9.3, -9.3, -9.3, -9.02, -9.37, -9.08, -9.42, -9.13, -9.13, -9.17, -9.17, -8.56, -8.56, -8.87, -8.87, -9.17, -9.17, -8.83, -9.13, -9.13, -9.13, -8.74, -8.78, -8.38, -8.38, -7.93, -7.93, -7.67, -7.19, -6.21, -6.08, -6.24, -7.26, -6.57, -6.57, -5.95, -5.76, -5.52, -4.92, -4.4, -3.49, -3.65, -3.65, -3.82, -3.25, -2.13, -2.28, -1.33, 0.0, 0.0, 0.0, 0.0, 1.18, 1.1, 0.96, 1.7, 1.41, 1.58, 1.76, 1.94, 1.49, 0.95, 0.89, 1.25, 0.95, 0.89, 0.0, 0.0, 0.0, 0.89, 1.33, 0.98, 0.0, 0.0, -1.44, -10.79, -6.6, -3.07, -4.38, -5.2, -4.8, -0.0, -0.0, -11.18, -7.9, 0.0, 2.4, 5.36, 5.09, 2.73, 1.27, 2.21, 3.58, 5.81, 0.0, 0.0, -9.58, -9.58, -9.3, -9.3, -9.3, -9.02, -9.02, -9.08, -9.08, -9.13, -9.13, -9.13, -9.13, -8.85, -8.85, -8.85, -8.87, -8.87, -9.17, -8.83, -8.83, -8.83, -9.15, -8.78, -8.78, -8.38, -8.38, -8.38, -7.93, -7.67, -7.19, -6.77, -6.33, -6.7, -6.24, -6.24, -6.0, -6.0, -5.76, -5.76, -4.92, -5.06, -4.2, -3.14, -3.63, -4.78, -4.99, -4.6, -3.45, -2.58, -1.47, 0.0, 0.0, 0.0, 0.0, 1.18, 1.03, 1.84, 1.8, 1.76, 1.76, 1.73, 1.49, 0.95, 0.89, 1.32, 0.0, 0.0, 0.0, 0.0, 0.0, 0.0, 0.0, 0.0, 0.0, -1.38, -2.42, -4.65, -7.0, -3.16, -6.0, -6.95, -2.54, -0.0, -0.0, 5.69, 7.6, 2.2, 2.2, 5.36, 5.51, 3.79, 2.48, 2.0, 2.53, 0.0, 0.0, 8.05, -9.21, -9.21, -9.21, -8.94, -9.3, -9.02, -9.02, -9.08, -9.08, -9.13, -9.13, -8.85, -8.85, -8.85, -8.85, -8.85, -8.85, -8.87, -8.87, -8.54, -8.85, -8.85, -9.15, -9.15, -8.78, -8.78, -8.38, -8.38, -7.67, -7.67, -7.73, -7.28, -6.53, -6.62, -6.09, -5.86, -6.0, -6.0, -6.0, -5.76, -5.9, -5.06, -4.0, -2.98, -2.69, -5.45, -6.71, -6.98, -5.7, -3.11, -1.47, 0.0, 0.0, 0.0, 0.0, 1.18, 1.1, 1.84, 1.23, 1.76, 1.76, 1.73, 1.49, 0.95, 0.89, 0.0, 0.0, 0.0, 0.0, 0.0, 0.0, 0.0, 0.0, 0.0, 0.0, -4.55, -5.1, -5.6, -0.0, -2.72, -5.8, -5.21, -0.0, -0.0, -0.0, 0.0, 0.0, 0.0, 4.11, 5.36, 4.8, 3.79, 3.79, 2.6, -0.0, -0.0, 0.0, 0.0, -9.21, -9.21, -9.21, -8.94, -8.94, -9.02, -9.02, -9.08, -9.08, -9.08, -8.53, -8.85, -8.85, -8.85, -8.85, -8.85, -8.85, -8.85, -9.17, -8.85, -8.85, -8.85, -8.85, -8.85, -8.85, -8.49, -8.49, -8.1, -8.1, -7.4, -7.4, -7.02, -7.02, -6.29, -6.36, -5.86, -5.63, -5.63, -6.0, -5.76, -6.15, -5.29, -4.83, -3.15, -1.94, -3.77, -8.53, -10.0, -8.23, -4.2, -2.17, 0.0, 0.0, 0.0, 0.0, 1.18, 1.1, 1.7, 1.35, 1.23, 1.76, 1.73, 1.16, 1.25, 0.0, 0.0, 0.0, 0.0, 0.0, 0.0, 0.0, -0.95, -1.4, 0.0, 0.0, -3.82, -9.2, -4.96, -0.0, -2.63, -2.93, -2.39, -1.95, -0.0, -0.0, -5.81, -4.74, 0.0, 6.26, 5.94, 4.8, 3.79, 2.6, 3.2, -0.0, -0.0, -0.0, 0.0, -9.21, -9.21, -9.21, -8.94, -8.94, -9.3, -8.78, -8.78, -8.82, -8.82, -8.82, -8.85, -8.85, -8.85, -8.85, -8.85, -8.85, -8.85, -8.85, -8.54, -8.54, -8.54, -8.85, -8.85, -8.85, -8.85, -8.49, -8.49, -7.82, -7.4, -7.14, -7.46, -6.76, -6.76, -6.04, -6.36, -5.86, -5.3, -5.63, -5.76, -5.76, -5.9, -5.64, -4.83, -4.07, -4.08, -6.2, -9.39, -7.6, -3.8, 0.0, 0.0, 0.0, 0.0, 1.25, 1.18, 1.1, 1.84, 1.47, 1.35, 1.19, 1.08, 1.4, 1.4, 1.4, 0.0, 0.0, 0.0, 0.0, 0.0, 0.0, -1.73, -2.83, -1.4, 0.0, 0.0, -11.28, -4.8, -1.54, -2.17, -2.8, -2.0, -2.2, -5.06, -6.8, -7.6, -5.06, 0.0, 7.6, 6.79, 6.0, 4.43, 2.8, 2.54, -0.0, 0.0, -0.0, -0.0, -9.21, -9.21, -9.21, -8.94, -8.73, -9.08, -8.78, -8.78, -8.82, -8.82, -8.82, -8.82, -8.82, -8.85, -8.85, -8.85, -8.85, -8.85, -8.85, -8.54, -8.54, -8.54, -8.85, -8.85, -9.17, -8.85, -8.2, -8.2, -7.82, -7.82, -7.14, -7.14, -6.76, -6.5, -6.5, -6.36, -6.36, -5.62, -5.41, -5.41, -5.76, -5.52, -5.9, -5.29, -5.0, -3.82, -1.14, 0.0, 0.0, 0.0, 0.0, 0.0, 0.0, 1.58, 1.25, 1.25, 1.1, 1.72, 1.6, 1.47, 1.3, 1.19, 1.19, 1.25, 1.49, 1.49, 1.4, 0.0, 0.0, 0.0, -0.89, -2.67, -4.2, -2.83, -1.54, 0.0, -8.0, -5.52, -4.14, -3.22, -1.8, -1.8, -4.71, -7.27, -10.28, -9.39, 0.0, 0.0, 7.15, 6.79, 6.4, 6.4, 5.06, 3.6, 0.0, 0.0, 0.0, 0.0, -9.21, -9.21, -9.21, -9.21, -8.73, -9.08, -8.78, -8.78, -8.5, -8.82, -8.82, -8.82, -8.82, -9.15, -9.15, -9.15, -8.85, -8.85, -8.85, -8.54, -8.54, -8.53, -8.85, -8.85, -8.85, -8.85, -8.54, -8.2, -8.2, -7.54, -7.54, -6.87, -6.87, -6.5, -6.5, -6.5, -6.11, -6.11, -5.62, -5.41, -5.18, -5.52, -5.52, -5.29, -5.14, -4.3, -1.69, -0.74, 0.0, 0.0, 0.0, 0.0, 0.0, 1.25, 1.25, 1.25, 1.18, 0.95, 1.72, 1.6, 1.3, 1.3, 1.19, 1.25, 2.82, 2.82, 2.82, 1.4, 0.0, 0.0, -1.73, -3.6, -3.63, -3.49, -2.57, -0.99, 0.0, 0.0, -5.21, -4.37, -5.29, -5.8, -8.18, -9.8, -11.2, -10.73, 0.0, 4.74, 6.26, 6.36, 6.51, 6.94, 6.79, -0.0, 0.0, 0.0, 0.0, 0.0, -9.21, -9.21, -9.21, -9.01, -8.73, -9.08, -9.08, -8.78, -8.78, -8.82, -8.82, -8.82, -8.82, -8.82, -9.15, -9.15, -9.15, -8.54, -8.54, -8.54, -8.85, -8.53, -8.53, -8.53, -8.85, -8.85, -8.85, -8.52, -7.9, -7.9, -7.54, -7.26, -6.87, -6.61, -6.5, -6.5, -6.11, -6.11, -5.39, -5.39, -5.18, -5.18, -5.52, -4.92, -4.92, -4.25, -3.11, -2.28, -0.74, 0.0, 0.0, 0.0, 0.0, 0.0, 0.0, 1.25, 1.18, 0.95, 0.89, 0.89, 1.41, 1.3, 1.16, 1.16, 2.54, 2.54, 2.54, 1.84, 0.0, -0.95, -2.69, -3.6, -4.34, -3.49, -2.47, 0.0, 0.93, 1.84, 1.84, 0.0, -5.23, -9.66, -8.4, -9.17, -6.2, -0.0, 0.0, 6.01, 8.05, 6.0, 7.6, 4.43, -0.0, -0.0, -8.49, -8.49, -8.49, -8.49, -9.21, -9.21, -9.21, -9.01, -9.37, -9.08, -9.08, -8.78, -8.78, -8.78, -8.82, -8.82, -8.82, -8.82, -8.82, -9.15, -8.85, -8.85, -8.24, -8.24, -8.53, -8.53, -8.53, -8.53, -8.53, -8.53, -8.53, -8.21, -8.21, -8.21, -7.56, -7.26, -6.87, -6.61, -6.9, -6.24, -6.24, -6.11, -5.85, -5.39, -5.7, -5.18, -5.52, -4.92, -4.92, -4.25, -4.07, -3.21, -2.35, -1.6, -0.85, -0.89, 0.0, 0.0, 0.0, 0.0, 1.01, 1.01, 0.95, 0.89, 0.72, 1.41, 1.16, 1.16, 1.67, 2.69, 1.32, 0.0, 0.0, -0.89, -2.83, -3.8, -3.45, -2.57, -1.68, 0.0, 0.85, 1.76, 2.59, 4.36, 2.89, -16.39, -7.14, -4.12, -4.38, -0.0, 0.0, 0.0, 9.83, 9.39, 7.15, 0.0, -0.0, -0.0, -7.6, -7.6, -7.6, -7.6, -9.48, -9.48, -9.21, -9.01, -9.37, -9.08, -9.08, -8.78, -8.78, -8.78, -8.78, -8.82, -8.82, -8.82, -8.82, -8.53, -8.85, -8.53, -8.53, -8.53, -8.53, -8.53, -8.53, -8.53, -8.53, -8.53, -8.53, -8.21, -8.21, -7.91, -7.91, -7.56, -7.56, -6.61, -6.9, -6.5, -6.24, -6.54, -6.11, -5.85, -5.7, -5.7, -5.18, -5.28, -4.71, -4.71, -4.07, -3.21, -2.35, -2.57, -1.67, -0.8, -0.89, 0.0, 0.0, 0.0, 0.0, 0.0, 0.95, 0.83, 0.78, 0.72, 1.16, 1.16, 1.7, 1.4, 0.0, 0.0, 0.0, -0.94, -2.54, -2.54, -2.69, -1.75, -0.85, 0.0, 0.0, 0.85, 1.84, 2.57, 3.08, 0.0, -8.4, -3.51, -5.09, -5.8, -0.0, -0.0, 6.32, 5.36, 4.92, 4.92, -0.0, -0.0, 0.0, -6.71, -6.71, -6.71, -9.48, -9.48, -9.21, -9.01, -9.37, -9.08, -9.08, -9.08, -8.78, -8.78, -8.78, -8.78, -9.12, -9.12, -8.82, -8.53, -8.53, -8.53, -8.53, -8.53, -8.53, -8.53, -8.53, -8.53, -8.53, -8.53, -8.53, -8.21, -7.91, -7.91, -7.91, -7.91, -7.56, -7.27, -6.9, -6.9, -6.24, -6.24, -6.11, -5.85, -5.85, -5.7, -5.46, -5.28, -4.71, -4.71, -3.88, -3.21, -3.32, -2.57, -2.44, -1.84, -1.75, -0.84, 0.0, 0.0, 0.0, 0.0, 0.0, 0.78, 0.78, 0.72, 1.16, 1.19, 1.19, 1.32, 1.25, 0.0, 0.0, 0.0, -0.89, -1.75, -1.67, -0.89, -0.89, 0.0, 0.0, 0.0, 0.85, 0.85, 0.89, 0.0, -14.79, -5.8, -4.23, -0.0, -0.0, -0.0, -0.0, 0.0, 5.81, 5.36, 4.92, 6.26, 0.0, 0.0, 0.0, 0.0, -9.48, -9.48, -9.3, -9.01, -9.01, -9.37, -9.08, -9.08, -8.78, -8.78, -8.78, -8.78, -9.12, -9.12, -8.84, -8.53, -8.53, -8.53, -8.53, -8.53, -8.53, -8.53, -8.53, -8.53, -8.53, -8.53, -8.53, -8.22, -7.91, -7.91, -7.91, -7.91, -7.56, -7.27, -7.27, -6.9, -6.63, -6.24, -6.24, -5.85, -5.85, -5.7, -5.7, -5.28, -5.28, -4.71, -4.5, -4.2, -3.49, -3.32, -2.44, -2.69, -1.75, -1.75, -0.94, 0.0, 0.0, 0.0, 0.0, 0.0, 0.78, 0.64, 0.59, 0.61, 0.61, 0.95, 0.95, 1.73, 0.89, 0.0, -1.84, -1.84, -0.85, -0.85, -0.85, -0.85, 0.0, 0.0, 0.0, 0.0, 0.0, 0.0, -6.45, -10.43, -2.57, -0.0, -0.0, -0.0, -0.0, -0.0, -0.0, 5.81, 4.92, 5.81, 0.0, 0.0, 0.0, 0.0, -9.3, -9.3, -9.3, -9.01, -9.01, -9.01, -9.08, -9.08, -8.78, -8.78, -8.78, -8.78, -8.78, -9.12, -8.84, -8.84, -8.53, -8.53, -8.53, -8.53, -8.53, -8.53, -8.53, -8.53, -8.53, -8.53, -8.53, -8.22, -7.91, -7.91, -7.91, -7.91, -7.6, -7.58, -7.58, -7.28, -6.93, -6.63, -6.24, -6.27, -5.85, -6.17, -5.7, -5.78, -5.28, -5.04, -4.5, -4.2, -4.2, -3.32, -2.57, -2.69, -1.84, -0.94, -0.94, -0.94, 0.0, 0.0, 0.0, 0.0, 0.0, 0.64, 0.59, 0.59, 0.0, 0.0, 0.89, 1.84, 0.83, 0.0, -2.67, -3.6, -3.45, -1.84, -0.89, -0.89, 0.0, 0.0, 0.0, 0.0, 0.0, 0.0, -0.95, -10.28, -0.0, -0.0, -0.0, -0.0, -0.0, -0.0, -0.0, -0.0, 0.0, 0.0, 0.0, 0.0, 0.0, 0.0, -9.3, -9.3, -9.3, -9.3, -9.01, -9.01, -8.73, -9.08, -9.08, -8.78, -8.78, -8.78, -8.78, -8.78, -8.84, -8.84, -8.84, -8.53, -8.53, -8.53, -8.22, -8.22, -8.84, -8.84, -8.53, -8.53, -8.22, -8.22, -7.91, -7.91, -7.91, -7.6, -7.9, -7.58, -7.58, -7.28, -7.28, -6.93, -6.93, -6.27, -6.27, -5.85, -6.17, -5.46, -5.28, -5.04, -4.5, -4.83, -4.2, -3.32, -3.32, -2.69, -2.69, -1.95, -0.94, -0.94, 0.0, 0.0, 0.0, 0.0, 0.0, 0.0, 0.0, 0.0, 0.0, 0.0, 0.0, 0.0, 0.0, 0.0, -1.84, -3.77, -4.68, -5.1, -1.84, -0.89, 0.0, 0.0, 0.0, 0.0, 0.0, 0.0, -0.89, -8.05, -0.0, -0.0, -0.0, -0.0, 4.02, 3.16, 2.6, -0.0, -0.0, 0.0, 4.92, 5.36, 5.36, 5.36, -9.3, -9.3, -9.3, -9.3, -9.01, -9.01, -9.01, -8.73, -9.08, -8.78, -8.78, -8.78, -8.78, -8.78, -8.78, -8.84, -8.84, -8.22, -8.22, -8.22, -8.22, -8.52, -9.12, -9.12, -8.84, -8.84, -8.22, -8.22, -8.22, -7.91, -7.6, -7.6, -7.9, -7.58, -7.58, -7.28, -7.28, -7.28, -6.64, -6.64, -6.27, -6.27, -5.9, -5.46, -5.46, -5.04, -5.04, -4.5, -4.83, -4.2, -3.32, -3.63, -2.69, -1.75, -1.95, -0.94, -0.84, 0.0, 0.0, 0.0, 0.0, 0.0, 0.0, 0.0, 0.0, 0.0, 0.0, 0.0, 0.0, 0.95, 0.0, -2.64, -4.58, -5.37, -3.6, -2.83, -0.89, 0.0, 0.0, -0.89, -0.89, -0.89, -1.84, -0.0, -0.0, -0.0, -0.0, -0.0, 2.53, 3.6, 3.48, 5.06, 4.74, 3.48, 4.0, 4.0, 4.0, 4.0, -9.3, -9.3, -9.3, -9.3, -9.3, -9.01, -9.01, -8.73, -8.73, -9.08, -8.78, -8.78, -8.78, -8.78, -8.78, -8.52, -8.52, -8.52, -8.52, -8.52, -8.52, -8.52, -9.12, -9.12, -9.12, -8.52, -8.52, -8.22, -8.22, -7.91, -7.6, -7.6, -7.9, -7.58, -7.58, -7.59, -7.59, -7.25, -6.95, -6.64, -6.27, -6.27, -5.9, -5.9, -5.46, -5.21, -5.04, -4.8, -4.5, -4.2, -4.0, -3.32, -2.54, -1.75, -1.65, -0.84, -0.84, 0.0, 0.0, 0.0, 0.0, 0.0, 0.0, 0.0, 0.0, -0.62, -0.58, 0.0, 0.0, 0.0, 0.0, 0.0, -0.95, -1.03, -2.8, -3.77, -2.67, -1.95, -1.75, -1.75, -1.84, -1.95, -6.01, -0.0, -0.0, -0.0, -0.0, -0.0, 1.6, 2.53, 3.16, 6.4, 6.8, 4.8, 4.0, 4.0, 4.0, 4.0, -9.2, -9.2, -9.3, -9.3, -9.3, -9.01, -9.01, -8.73, -8.73, -9.08, -9.08, -9.08, -9.08, -9.08, -8.78, -8.78, -8.52, -8.52, -8.52, -8.52, -8.52, -8.52, -8.78, -8.78, -8.78, -8.52, -8.52, -8.22, -8.22, -7.6, -7.6, -7.6, -7.9, -7.58, -7.28, -7.59, -7.59, -7.25, -6.95, -6.95, -6.58, -6.58, -5.9, -5.9, -5.21, -5.21, -4.73, -4.8, -4.28, -4.5, -4.0, -4.0, -2.69, -2.54, -1.75, -1.65, -0.84, -0.84, -0.76, 0.0, 0.0, 0.0, 0.0, 0.0, 0.0, -0.67, -0.67, 0.0, 0.0, 0.0, 0.0, 0.0, 0.89, 0.84, 0.0, -0.89, -3.77, -2.83, -2.54, -2.83, -2.67, -1.84, -5.81, -1.84, -0.0, -0.0, -0.0, -0.0, -0.0, 1.8, 4.11, 7.2, 7.2, 5.6, 3.48, 4.4, 4.4, 4.4, -9.2, -9.2, -8.93, -8.93, -9.3, -9.01, -9.01, -8.73, -8.73, -8.73, -9.08, -9.08, -9.08, -9.08, -9.08, -8.52, -8.52, -8.52, -8.52, -8.52, -8.52, -8.52, -8.78, -8.78, -8.52, -8.52, -8.52, -8.52, -8.22, -7.6, -7.6, -7.9, -7.9, -7.58, -7.59, -7.59, -7.25, -7.25, -6.95, -6.58, -6.58, -6.58, -5.9, -5.9, -5.9, -5.21, -5.21, -4.73, -4.8, -4.5, -3.88, -4.0, -3.15, -2.44, -1.75, -1.75, -0.8, -0.76, -0.76, -0.71, -0.71, -0.71, -0.67, -0.67, -0.67, -0.67, -0.67, -0.74, 0.0, -0.89, 0.0, 0.0, 0.0, 0.0, 0.0, 0.0, -1.95, -2.83, -2.69, -2.54, -1.84, 0.0, 0.0, -0.0, -0.0, -0.0, -0.0, -0.0, -0.0, -0.0, 2.4, 5.06, 5.06, 4.74, 3.79, 4.11, 4.11, 4.11, -9.2, -9.2, -8.93, -8.93, -8.93, -9.01, -9.01, -9.01, -8.73, -8.73, -8.73, -8.73, -9.08, -9.08, -9.08, -8.82, -8.52, -8.52, -8.52, -8.52, -8.52, -8.52, -8.52, -8.52, -8.52, -8.52, -8.52, -8.52, -8.22, -7.6, -7.6, -7.9, -7.58, -7.58, -7.59, -7.59, -7.25, -7.25, -7.25, -6.58, -6.58, -6.58, -5.9, -5.9, -5.9, -5.46, -5.21, -4.73, -4.5, -4.5, -4.28, -3.06, -3.15, -2.44, -2.44, -1.58, -1.58, -1.58, -1.36, -1.36, -1.4, -0.71, -0.71, -0.71, -0.71, -0.71, -0.79, -0.79, -0.74, -0.89, -0.89, -0.89, 0.0, 0.0, 0.0, -0.84, -2.67, -2.69, -3.45, -2.69, 0.0, 0.94, 1.01, 6.71, -0.0, -0.0, -0.0, -0.0, -0.0, -0.0, -0.0, -0.0, 2.4, 3.2, 2.8, 2.84, 2.84, 2.84, -9.2, -9.2, -8.93, -8.93, -8.93, -9.01, -9.01, -9.01, -8.73, -8.73, -8.73, -8.73, -8.73, -8.73, -8.49, -8.82, -8.52, -8.52, -8.52, -8.52, -8.52, -8.52, -8.52, -8.52, -8.52, -8.52, -8.52, -8.52, -8.22, -7.6, -7.6, -7.9, -7.58, -7.28, -7.59, -7.25, -7.25, -7.25, -6.87, -6.92, -6.92, -6.92, -6.17, -5.9, -5.9, -5.46, -5.21, -4.73, -4.5, -4.0, -4.28, -3.7, -3.06, -2.44, -2.44, -2.31, -2.31, -2.12, -2.12, -2.0, -1.88, -1.4, -1.4, -1.4, -1.4, -1.4, -1.55, -1.55, -1.55, -1.96, -0.89, 0.0, 0.0, 0.89, 0.0, 0.0, -0.94, -2.67, -3.45, -0.89, 0.0, 1.75, 1.84, 3.0, 2.17, -0.0, -1.67, -1.63, -0.0, -0.0, -0.0, -0.0, 1.8, 3.79, 2.23, 2.53, 2.53, 2.53, -8.82, -8.82, -9.2, -8.93, -8.93, -8.93, -9.01, -9.01, -9.01, -8.73, -8.73, -8.73, -8.73, -8.49, -8.49, -8.49, -8.82, -8.52, -8.52, -8.52, -8.52, -8.52, -8.52, -8.52, -8.52, -8.52, -8.52, -8.52, -8.22, -7.9, -7.9, -7.9, -7.58, -7.58, -7.59, -7.25, -7.25, -7.25, -7.22, -7.22, -6.92, -6.92, -6.51, -5.9, -5.9, -5.46, -5.21, -4.73, -4.73, -4.2, -4.28, -3.7, -3.06, -3.06, -2.23, -2.23, -2.12, -2.75, -2.75, -2.6, -2.0, -2.18, -2.06, -1.55, -1.4, -1.55, -1.55, -1.65, -2.4, -2.06, -1.23, 0.0, 0.83, 0.95, 0.0, 0.0, 0.0, 0.0, -0.94, -0.89, 0.0, 0.89, 0.89, 1.32, 2.97, -0.0, -1.84, -3.49, -1.67, -1.95, -0.0, -0.0, 1.13, 2.23, 2.23, 1.6, 1.6, 1.6, -8.82, -8.82, -8.82, -8.93, -8.93, -8.93, -8.65, -8.65, -9.01, -9.01, -9.01, -8.79, -8.49, -8.49, -8.49, -8.49, -8.82, -8.82, -8.82, -8.82, -8.52, -8.52, -8.52, -8.52, -8.52, -8.52, -8.52, -8.22, -8.22, -7.9, -7.9, -7.58, -7.58, -7.58, -7.9, -7.25, -7.25, -7.25, -7.59, -7.22, -7.22, -6.92, -6.51, -6.23, -5.9, -5.46, -5.46, -5.21, -4.73, -5.04, -4.28, -3.7, -3.7, -3.06, -2.9, -2.9, -2.9, -2.75, -2.75, -2.75, -2.82, -2.82, -2.82, -2.4, -2.4, -2.4, -2.4, -2.4, -2.54, -2.18, -1.93, -0.89, 0.0, 1.49, 0.95, 0.0, 0.0, 0.0, 0.0, 0.0, 0.0, 0.0, 0.0, 0.0, -0.0, -1.58, -3.68, -3.98, -3.11, -3.65, -1.75, -0.0, -0.0, 0.98, 0.87, -0.0, -0.0, -0.0, -8.82, -8.82, -8.82, -8.55, -8.93, -8.93, -8.93, -8.65, -8.65, -8.65, -8.79, -8.79, -8.79, -8.79, -8.49, -8.49, -8.82, -8.82, -8.82, -8.82, -8.82, -8.82, -8.52, -8.52, -8.52, -8.52, -8.22, -8.22, -8.22, -7.9, -7.9, -7.58, -7.58, -7.58, -7.9, -7.55, -7.25, -7.25, -7.59, -7.22, -7.22, -6.92, -6.92, -6.51, -6.23, -6.23, -5.78, -5.52, -5.04, -5.04, -4.28, -4.28, -3.7, -4.0, -3.8, -3.51, -3.51, -3.51, -3.33, -3.33, -3.6, -3.4, -3.09, -3.09, -3.09, -3.09, -2.4, -2.54, -3.27, -3.09, -2.72, -1.16, -0.59, 0.0, 0.0, 0.0, 0.0, 0.0, 0.0, 0.0, -0.89, 0.0, 0.0, 0.0, 0.0, -1.69, -4.23, -4.6, -3.11, -2.97, -1.84, -1.49, -0.0, -0.0, -0.0, -0.0, -0.0, -0.0, -8.82, -8.82, -8.82, -8.55, -8.93, -8.93, -8.93, -8.65, -8.65, -8.65, -8.79, -8.79, -8.79, -8.79, -8.49, -8.49, -8.82, -8.82, -8.82, -8.82, -8.82, -8.82, -8.52, -8.52, -8.52, -8.52, -8.22, -8.22, -8.22, -7.9, -7.9, -7.58, -7.58, -7.58, -7.9, -7.55, -7.25, -7.25, -7.59, -7.22, -7.22, -6.92, -6.92, -6.51, -6.23, -6.23, -5.78, -5.52, -5.04, -5.04, -4.28, -4.28, -3.7, -4.0, -3.8, -3.51, -3.51, -3.51, -3.33, -3.33, -3.6, -3.4, -3.09, -3.09, -3.09, -3.09, -2.4, -2.54, -3.27, -3.09, -2.72, -1.16, -0.59, 0.0, 0.0, 0.0, 0.0, 0.0, 0.0, 0.0, -0.89, -0.84, 0.0, 0.0, 0.0, -0.0, -1.54, -2.7, -2.7, -1.39, -1.62, -1.54, -0.0, -0.0, -0.0, -0.0, -0.0, -0.0]}]